EA1FJG Weather Reports


time (UTC)temp
C
wind
direction
speed
KPH
gust
KPH
rain 1hr
cm
rain 24hr
cm
rain mn
cm
humidity
%
barometer
mb
20260508133003 15 168 1.6 6.4 0.03 0.03 0.03 82 1009.7
20260508132903 15 168 1.6 6.4 0.03 0.03 0.03 82 1009.7
20260508132803 15 170 1.6 6.4 0.03 0.03 0.03 83 1009.8
20260508132703 15 168 1.6 6.4 0.03 0.03 0.03 83 1009.7
20260508132603 15 164 1.6 6.4 0.03 0.03 0.03 83 1009.6
20260508132524 15 166 1.6 6.4 0.03 0.03 0.03 82 1009.7
20260508132403 15 160 1.6 4.8 0.03 0.03 0.03 84 1009.7
20260508132306 15 166 1.6 9.7 0.03 0.03 0.03 84 1009.7
20260508132203 15 175 1.6 9.7 0.03 0.03 0.03 84 1009.7
20260508132103 15 178 3.2 9.7 0.03 0.03 0.03 83 1009.6
20260508132003 15 174 3.2 9.7 0.03 0.03 0.03 83 1009.7
20260508131904 15 178 3.2 9.7 0.03 0.03 0.03 82 1009.6
20260508131824 15 178 3.2 9.7 0.03 0.03 0.03 82 1009.6
20260508131703 15 183 3.2 9.7 0.03 0.03 0.03 82 1009.6
20260508131603 15 188 3.2 11.3 0.03 0.03 0.03 81 1009.8
20260508131503 15 192 3.2 11.3 0.03 0.03 0.03 81 1009.7
20260508131403 15 197 4.8 11.3 0.03 0.03 0.03 80 1009.6
20260508131303 15 206 3.2 11.3 0.00 0.00 0.00 79 1009.6
20260508131203 15 222 3.2 11.3 0.00 0.00 0.00 79 1009.6
20260508131103 15 220 3.2 11.3 0.00 0.00 0.00 78 1009.5
20260508131024 15 232 3.2 11.3 0.00 0.00 0.00 77 1009.5
20260508130903 15 243 3.2 11.3 0.00 0.00 0.00 77 1009.6
20260508130803 16 257 3.2 11.3 0.00 0.00 0.00 77 1009.5
20260508130703 16 265 3.2 11.3 0.00 0.00 0.00 77 1009.5
20260508130603 16 280 3.2 4.8 0.00 0.00 0.00 77 1009.4
20260508130524 16 280 3.2 4.8 0.00 0.00 0.00 77 1009.4
20260508130403 16 276 3.2 4.8 0.00 0.00 0.00 77 1009.5
20260508130302 16 273 3.2 4.8 0.00 0.00 0.00 76 1009.4
20260508130202 16 271 3.2 4.8 0.00 0.00 0.00 76 1009.5
20260508130003 16 268 3.2 6.4 0.00 0.00 0.00 75 1009.3
20260508125902 16 265 3.2 6.4 0.00 0.00 0.00 75 1009.4
20260508125803 16 260 3.2 6.4 0.00 0.00 0.00 74 1009.2
20260508125724 16 249 3.2 6.4 0.00 0.00 0.00 74 1009.3
20260508125603 16 247 3.2 6.4 0.00 0.00 0.00 73 1009.1
20260508125502 16 227 3.2 6.4 0.00 0.00 0.00 72 1009.2
20260508125403 17 159 1.6 6.4 0.00 0.00 0.00 69 1009.1
20260508125306 17 118 1.6 6.4 0.00 0.00 0.00 66 1009.2
20260508125202 17 108 1.6 6.4 0.00 0.00 0.00 64 1009.2
20260508125102 17 101 1.6 3.2 0.00 0.00 0.00 65 1009.2
20260508125003 17 101 1.6 3.2 0.00 0.00 0.00 65 1009.2
20260508124903 17 101 1.6 3.2 0.00 0.00 0.00 67 1009.0
20260508124824 17 101 1.6 3.2 0.00 0.00 0.00 67 1009.0
20260508124724 17 101 1.6 3.2 0.00 0.00 0.00 65 1009.0
20260508124623 17 101 1.6 3.2 0.00 0.00 0.00 65 1009.0
20260508124503 17 101 1.6 3.2 0.00 0.00 0.00 63 1009.1
20260508124402 17 101 0.0 1.6 0.00 0.00 0.00 64 1009.1
20260508124302 17 101 0.0 1.6 0.00 0.00 0.00 64 1009.0
20260508124203 17 101 0.0 1.6 0.00 0.00 0.00 65 1009.0
20260508124103 17 101 0.0 1.6 0.00 0.00 0.00 64 1009.1
20260508124002 17 101 0.0 1.6 0.00 0.00 0.00 66 1008.9
20260508123923 17 101 0.0 1.6 0.00 0.00 0.00 66 1009.1
20260508123803 17 101 1.6 3.2 0.00 0.00 0.00 67 1009.0
20260508123703 17 101 0.0 3.2 0.00 0.00 0.00 65 1009.0
20260508123624 17 101 0.0 3.2 0.00 0.00 0.00 65 1009.0
20260508123503 17 101 1.6 3.2 0.00 0.00 0.00 67 1009.0
20260508123403 17 101 1.6 4.8 0.00 0.00 0.00 66 1008.9
20260508123303 17 101 1.6 4.8 0.00 0.00 0.00 66 1008.9
20260508123202 17 101 1.6 4.8 0.00 0.00 0.00 68 1009.0
20260508123103 17 101 1.6 4.8 0.00 0.00 0.00 67 1009.0
20260508123003 17 101 1.6 4.8 0.00 0.00 0.00 67 1009.0
20260508122902 17 101 1.6 4.8 0.00 0.00 0.00 67 1009.1
20260508122803 17 101 1.6 4.8 0.00 0.00 0.00 67 1009.1
20260508122724 17 101 1.6 4.8 0.00 0.00 0.00 69 1009.0
20260508122603 17 101 1.6 11.3 0.00 0.00 0.00 68 1009.1
20260508122503 17 103 3.2 11.3 0.00 0.00 0.00 67 1009.2
20260508122402 17 104 3.2 11.3 0.00 0.00 0.00 66 1009.2
20260508122306 17 109 3.2 11.3 0.00 0.00 0.00 69 1009.1
20260508122203 17 110 3.2 11.3 0.00 0.00 0.00 67 1009.1
20260508122103 17 110 3.2 11.3 0.00 0.00 0.00 67 1009.1
20260508122002 17 111 3.2 11.3 0.00 0.00 0.00 66 1009.1
20260508121903 17 111 3.2 11.3 0.00 0.00 0.00 67 1009.2
20260508121823 16 115 3.2 11.3 0.00 0.00 0.00 67 1009.1
20260508121703 16 113 4.8 11.3 0.00 0.00 0.00 66 1009.1
20260508121603 17 113 4.8 11.3 0.00 0.00 0.00 65 1009.2
20260508121503 17 115 4.8 11.3 0.00 0.00 0.00 65 1009.1
20260508121403 17 115 4.8 11.3 0.00 0.00 0.00 68 1009.0
20260508121303 17 123 4.8 11.3 0.00 0.00 0.00 68 1009.2
20260508121224 17 123 4.8 11.3 0.00 0.00 0.00 68 1009.2
20260508121103 17 136 4.8 11.3 0.00 0.00 0.00 66 1009.2
20260508121003 17 137 4.8 11.3 0.00 0.00 0.00 67 1009.1
20260508120902 17 137 4.8 11.3 0.00 0.00 0.00 65 1009.2
20260508120803 17 135 4.8 11.3 0.00 0.00 0.00 66 1009.1
20260508120703 17 142 4.8 11.3 0.00 0.00 0.00 67 1009.3
20260508120624 17 142 4.8 11.3 0.00 0.00 0.00 67 1009.3
20260508120503 17 143 4.8 11.3 0.00 0.00 0.00 64 1009.2
20260508120423 17 145 4.8 11.3 0.00 0.00 0.00 64 1009.2
20260508120303 17 158 4.8 11.3 0.00 0.00 0.00 65 1009.3
20260508120203 17 147 4.8 11.3 0.00 0.00 0.00 65 1009.2
20260508120004 17 144 4.8 11.3 0.00 0.00 0.00 68 1009.2
20260508115902 17 144 4.8 11.3 0.00 0.00 0.00 66 1009.1
20260508115802 17 148 4.8 11.3 0.00 0.00 0.00 65 1009.2
20260508115724 17 154 4.8 11.3 0.00 0.00 0.00 67 1009.1
20260508115603 17 148 4.8 11.3 0.00 0.00 0.00 67 1009.3
20260508115523 17 148 4.8 11.3 0.00 0.00 0.00 67 1009.3
20260508115402 17 151 4.8 11.3 0.00 0.00 0.00 67 1009.2
20260508115306 17 142 4.8 11.3 0.00 0.00 0.00 69 1009.3
20260508115224 17 142 4.8 11.3 0.00 0.00 0.00 69 1009.3
20260508115102 17 133 4.8 11.3 0.00 0.00 0.00 68 1009.3
20260508115002 17 126 4.8 11.3 0.00 0.00 0.00 69 1009.1
20260508114903 17 126 4.8 11.3 0.00 0.00 0.00 69 1009.1
20260508114803 17 125 4.8 12.9 0.00 0.00 0.00 69 1009.2
20260508114703 17 117 4.8 14.5 0.00 0.00 0.00 67 1009.2
20260508114603 17 117 6.4 14.5 0.00 0.00 0.00 68 1009.1
20260508114503 17 124 6.4 14.5 0.00 0.00 0.00 67 1009.2
20260508114403 17 130 6.4 16.1 0.00 0.00 0.00 66 1009.2
20260508114303 17 128 8.0 16.1 0.00 0.00 0.00 68 1009.2
20260508114203 17 128 8.0 16.1 0.00 0.00 0.00 68 1009.2
20260508114124 17 128 8.0 16.1 0.00 0.00 0.00 69 1009.3
20260508114003 17 128 8.0 16.1 0.00 0.00 0.00 71 1009.0
20260508113903 16 133 8.0 16.1 0.00 0.00 0.00 69 1009.2
20260508113803 16 135 8.0 16.1 0.00 0.00 0.00 68 1009.1
20260508113703 16 135 8.0 16.1 0.00 0.00 0.00 68 1009.1
20260508113603 16 138 6.4 16.1 0.00 0.00 0.00 69 1009.0
20260508113524 16 131 6.4 16.1 0.00 0.00 0.00 69 1009.0
20260508113402 16 124 6.4 16.1 0.00 0.00 0.00 67 1009.1
20260508113303 16 114 4.8 11.3 0.00 0.00 0.00 68 1009.0
20260508113203 17 122 4.8 12.9 0.00 0.00 0.00 68 1009.2
20260508113103 17 117 4.8 12.9 0.00 0.00 0.00 70 1009.0
20260508113003 17 117 4.8 12.9 0.00 0.00 0.00 72 1009.2
20260508112903 17 113 4.8 12.9 0.00 0.00 0.00 72 1009.0
20260508112802 16 107 4.8 12.9 0.00 0.00 0.00 73 1009.0
20260508112703 17 108 4.8 12.9 0.00 0.00 0.00 71 1009.2
20260508112603 17 110 4.8 12.9 0.00 0.00 0.00 71 1009.2
20260508112502 17 110 4.8 12.9 0.00 0.00 0.00 71 1009.2
20260508112403 16 118 4.8 12.9 0.00 0.00 0.00 72 1009.1
20260508112306 16 118 4.8 12.9 0.00 0.00 0.00 72 1009.2
20260508112203 17 117 6.4 12.9 0.00 0.00 0.00 72 1009.3
20260508112103 17 119 4.8 11.3 0.00 0.00 0.00 72 1009.2
20260508112002 16 123 6.4 11.3 0.00 0.00 0.00 73 1009.1
20260508111924 16 122 6.4 12.9 0.00 0.00 0.00 73 1009.1
20260508111803 16 123 6.4 12.9 0.00 0.00 0.00 74 1009.2
20260508111703 16 125 6.4 12.9 0.00 0.00 0.00 74 1009.3
20260508111603 16 130 6.4 12.9 0.00 0.00 0.00 73 1009.1
20260508111503 16 134 6.4 12.9 0.00 0.00 0.00 74 1009.4
20260508111403 16 134 6.4 12.9 0.00 0.00 0.00 74 1009.2
20260508111303 16 134 6.4 12.9 0.00 0.00 0.00 74 1009.2
20260508111203 16 133 8.0 12.9 0.00 0.00 0.00 73 1009.4
20260508111103 16 133 8.0 12.9 0.00 0.00 0.00 73 1009.3
20260508111003 16 134 8.0 12.9 0.00 0.00 0.00 74 1009.4
20260508110903 16 134 8.0 12.9 0.00 0.00 0.00 73 1009.4
20260508110802 16 136 8.0 12.9 0.00 0.00 0.00 73 1009.3
20260508110703 16 137 6.4 12.9 0.00 0.00 0.00 73 1009.3
20260508110603 16 137 6.4 12.9 0.00 0.00 0.00 72 1009.4
20260508110503 16 131 6.4 12.9 0.00 0.00 0.00 74 1009.4
20260508110403 16 125 6.4 12.9 0.00 0.00 0.00 75 1009.5
20260508110302 16 125 6.4 12.9 0.00 0.00 0.00 73 1009.5
20260508110224 16 125 6.4 12.9 0.00 0.00 0.00 73 1009.5
20260508110103 16 124 6.4 12.9 0.00 0.00 0.00 73 1009.5
20260508110002 17 126 6.4 12.9 0.00 0.00 0.00 73 1009.5
20260508105902 17 121 4.8 12.9 0.00 0.00 0.00 73 1009.6
20260508105803 17 122 4.8 11.3 0.00 0.00 0.00 75 1009.5
20260508105702 16 121 4.8 11.3 0.00 0.00 0.00 77 1009.5
20260508105602 16 124 4.8 11.3 0.00 0.00 0.00 77 1009.6
20260508105502 16 123 6.4 11.3 0.00 0.00 0.00 76 1009.5
20260508105403 16 123 6.4 11.3 0.00 0.00 0.00 78 1009.6
20260508105306 16 124 6.4 11.3 0.00 0.00 0.00 77 1009.5
20260508105202 16 119 4.8 9.7 0.00 0.00 0.00 78 1009.5
20260508105103 16 119 4.8 9.7 0.00 0.00 0.00 78 1009.5
20260508105003 16 119 4.8 9.7 0.00 0.00 0.00 76 1009.7
20260508104902 16 119 4.8 9.7 0.00 0.00 0.00 76 1009.7
20260508104803 16 115 4.8 9.7 0.00 0.00 0.00 77 1009.6
20260508104703 16 108 4.8 9.7 0.00 0.00 0.00 76 1009.6
20260508104603 16 111 6.4 9.7 0.00 0.00 0.00 77 1009.6
20260508104502 16 109 6.4 9.7 0.00 0.00 0.00 77 1009.5
20260508104403 16 109 4.8 9.7 0.00 0.00 0.00 77 1009.7
20260508104303 16 109 4.8 9.7 0.00 0.00 0.00 78 1009.6
20260508104203 16 108 4.8 9.7 0.00 0.00 0.00 78 1009.7
20260508104103 16 108 4.8 9.7 0.00 0.00 0.00 77 1009.6
20260508104023 16 108 4.8 9.7 0.00 0.00 0.00 77 1009.6
20260508103903 16 108 4.8 9.7 0.00 0.00 0.00 77 1009.6
20260508103803 16 107 4.8 9.7 0.00 0.00 0.00 77 1009.7
20260508103703 16 107 4.8 9.7 0.00 0.00 0.00 77 1009.7
20260508103603 16 106 4.8 9.7 0.00 0.00 0.00 78 1009.7
20260508103502 16 105 4.8 9.7 0.00 0.00 0.00 78 1009.5
20260508103423 16 104 4.8 9.7 0.00 0.00 0.00 79 1009.7
20260508103303 16 104 4.8 9.7 0.00 0.00 0.00 79 1009.5
20260508103202 15 107 4.8 11.3 0.00 0.00 0.00 78 1009.6
20260508103102 15 114 6.4 11.3 0.00 0.00 0.00 78 1009.7
20260508103003 15 113 6.4 11.3 0.00 0.00 0.00 78 1009.7
20260508102902 15 115 6.4 11.3 0.00 0.00 0.00 78 1009.6
20260508102803 15 121 6.4 11.3 0.00 0.00 0.00 77 1009.5
20260508102703 15 121 6.4 11.3 0.00 0.00 0.00 79 1009.7
20260508102603 15 122 6.4 11.3 0.00 0.00 0.00 79 1009.8
20260508102503 15 122 6.4 11.3 0.00 0.00 0.00 79 1009.8
20260508102403 15 125 6.4 12.9 0.00 0.00 0.00 78 1009.5
20260508102306 15 125 6.4 12.9 0.00 0.00 0.00 78 1009.8
20260508102224 15 125 6.4 12.9 0.00 0.00 0.00 77 1009.6
20260508102103 15 130 6.4 12.9 0.00 0.00 0.00 77 1009.6
20260508102003 15 125 4.8 12.9 0.00 0.00 0.00 77 1009.4
20260508101924 15 125 4.8 12.9 0.00 0.00 0.00 78 1009.7
20260508101803 15 124 4.8 12.9 0.00 0.00 0.00 79 1009.5
20260508101702 15 116 4.8 12.9 0.00 0.00 0.00 80 1009.6
20260508101603 15 124 4.8 12.9 0.00 0.00 0.00 79 1009.6
20260508101503 15 126 4.8 12.9 0.00 0.00 0.00 78 1009.6
20260508101403 15 118 4.8 11.3 0.00 0.00 0.00 78 1009.5
20260508101303 15 118 4.8 11.3 0.00 0.00 0.00 78 1009.5
20260508101203 15 118 4.8 11.3 0.00 0.00 0.00 79 1009.6
20260508101124 15 121 4.8 11.3 0.00 0.00 0.00 79 1009.5
20260508101003 15 115 4.8 9.7 0.00 0.00 0.00 81 1009.8
20260508100903 15 116 4.8 9.7 0.00 0.00 0.00 80 1009.6
20260508100824 15 117 4.8 9.7 0.00 0.00 0.00 80 1009.6
20260508100703 15 118 4.8 9.7 0.00 0.00 0.00 79 1009.4
20260508100603 15 120 4.8 9.7 0.00 0.00 0.00 80 1009.5
20260508100503 15 109 4.8 9.7 0.00 0.00 0.00 80 1009.5
20260508100403 15 107 4.8 9.7 0.00 0.00 0.00 79 1009.5
20260508100324 15 107 4.8 9.7 0.00 0.00 0.00 79 1009.5
20260508100202 15 103 4.8 9.7 0.00 0.00 0.00 80 1009.7
20260508100003 15 93 3.2 9.7 0.00 0.00 0.00 82 1009.5
20260508095903 15 93 3.2 9.7 0.00 0.00 0.00 82 1009.5
20260508095702 15 86 3.2 6.4 0.00 0.00 0.00 81 1009.4
20260508095603 15 86 3.2 6.4 0.00 0.00 0.00 81 1009.4
20260508095503 15 85 3.2 6.4 0.00 0.00 0.00 81 1009.4
20260508095403 15 94 3.2 9.7 0.00 0.00 0.00 82 1009.5
20260508095306 15 94 3.2 9.7 0.00 0.00 0.00 82 1009.5
20260508095224 15 95 3.2 9.7 0.00 0.00 0.00 82 1009.4
20260508095103 15 105 3.2 9.7 0.00 0.00 0.00 82 1009.6
20260508095003 15 103 3.2 9.7 0.00 0.00 0.00 82 1009.6
20260508094923 15 102 3.2 9.7 0.00 0.00 0.00 81 1009.5
20260508094803 15 100 3.2 9.7 0.00 0.00 0.00 82 1009.5
20260508094724 15 98 4.8 9.7 0.00 0.00 0.00 82 1009.3
20260508094603 15 96 4.8 9.7 0.00 0.00 0.00 82 1009.7
20260508094503 15 96 3.2 9.7 0.00 0.00 0.00 82 1009.5
20260508094403 15 97 3.2 9.7 0.00 0.00 0.00 82 1009.6
20260508094303 15 93 3.2 9.7 0.00 0.00 0.00 82 1009.5
20260508094203 15 92 3.2 9.7 0.00 0.00 0.00 82 1009.5
20260508094124 15 92 3.2 9.7 0.00 0.00 0.00 82 1009.5
20260508094003 15 82 3.2 6.4 0.00 0.00 0.00 82 1009.4
20260508093903 15 83 3.2 6.4 0.00 0.00 0.00 82 1009.4
20260508093802 15 81 1.6 6.4 0.00 0.00 0.00 82 1009.5
20260508093703 15 75 1.6 4.8 0.00 0.00 0.00 83 1009.5
20260508093603 15 75 1.6 4.8 0.00 0.00 0.00 83 1009.4
20260508093503 15 76 1.6 4.8 0.00 0.00 0.00 82 1009.4
20260508093403 15 76 1.6 4.8 0.00 0.00 0.00 83 1009.4
20260508093303 15 78 1.6 4.8 0.00 0.00 0.00 83 1009.5
20260508093203 15 71 1.6 4.8 0.00 0.00 0.00 84 1009.4
20260508093103 15 70 1.6 4.8 0.00 0.00 0.00 84 1009.6
20260508093003 15 72 1.6 4.8 0.00 0.00 0.00 84 1009.5
20260508092903 15 72 1.6 4.8 0.00 0.00 0.00 84 1009.5
20260508092803 15 72 1.6 4.8 0.00 0.00 0.00 84 1009.4
20260508092703 15 73 1.6 4.8 0.00 0.00 0.00 84 1009.6
20260508092602 15 73 3.2 4.8 0.00 0.00 0.00 84 1009.4
20260508092503 15 73 3.2 4.8 0.00 0.00 0.00 85 1009.7
20260508092424 15 72 3.2 4.8 0.00 0.00 0.00 84 1009.5
20260508092312 15 71 1.6 4.8 0.00 0.00 0.00 84 1009.5
20260508092203 15 67 1.6 4.8 0.00 0.00 0.00 83 1009.4
20260508092103 15 66 1.6 4.8 0.00 0.00 0.00 83 1009.6
20260508092003 15 66 1.6 4.8 0.00 0.00 0.00 83 1009.5
20260508091924 15 66 1.6 4.8 0.00 0.00 0.00 83 1009.5
20260508091803 15 66 1.6 4.8 0.00 0.00 0.00 82 1009.3
20260508091703 16 63 0.0 4.8 0.00 0.00 0.00 82 1009.5
20260508091603 16 56 0.0 1.6 0.00 0.00 0.00 82 1009.5
20260508091503 16 55 0.0 1.6 0.00 0.00 0.00 82 1009.4
20260508091403 16 53 0.0 1.6 0.00 0.00 0.00 83 1009.3
20260508091303 16 53 0.0 1.6 0.00 0.00 0.00 84 1009.3
20260508091203 15 53 0.0 1.6 0.00 0.00 0.00 84 1009.4
20260508091102 15 53 0.0 1.6 0.00 0.00 0.00 84 1009.4
20260508091003 15 0 0.0 0.0 0.00 0.00 0.00 84 1009.3
20260508090902 15 0 0.0 0.0 0.00 0.00 0.00 84 1009.3
20260508090824 15 53 0.0 1.6 0.00 0.00 0.00 85 1009.4
20260508090702 15 53 0.0 1.6 0.00 0.00 0.00 85 1009.4
20260508090603 15 53 0.0 1.6 0.00 0.00 0.00 86 1009.2
20260508090524 15 53 0.0 1.6 0.00 0.00 0.00 86 1009.4
20260508090424 15 53 0.0 1.6 0.00 0.00 0.00 86 1009.4
20260508090302 15 53 0.0 1.6 0.00 0.00 0.00 86 1009.3
20260508090202 15 53 0.0 1.6 0.00 0.00 0.00 86 1009.3
20260508090003 14 53 0.0 1.6 0.00 0.00 0.00 86 1009.5
20260508085924 14 53 0.0 1.6 0.00 0.00 0.00 86 1009.5
20260508085803 14 53 0.0 1.6 0.00 0.00 0.00 86 1009.4
20260508085703 14 53 0.0 1.6 0.00 0.00 0.00 86 1009.4
20260508085603 14 53 0.0 1.6 0.00 0.00 0.00 86 1009.4
20260508085503 14 53 0.0 3.2 0.00 0.00 0.00 87 1009.5
20260508085402 14 54 0.0 3.2 0.00 0.00 0.00 87 1009.5
20260508085306 14 54 0.0 3.2 0.00 0.00 0.00 87 1009.5
20260508085203 14 53 0.0 3.2 0.00 0.00 0.00 87 1009.4
20260508085124 14 53 1.6 3.2 0.00 0.00 0.00 87 1009.5
20260508085003 13 52 1.6 3.2 0.00 0.00 0.00 87 1009.6
20260508084924 13 52 1.6 3.2 0.00 0.00 0.00 87 1009.5
20260508084803 13 52 1.6 3.2 0.00 0.00 0.00 87 1009.5
20260508084724 13 52 1.6 3.2 0.00 0.00 0.00 87 1009.5
20260508084624 13 51 1.6 3.2 0.00 0.00 0.00 87 1009.7
20260508084503 13 51 1.6 3.2 0.00 0.00 0.00 88 1009.5
20260508084403 13 50 1.6 3.2 0.00 0.00 0.00 88 1009.5
20260508084303 13 50 1.6 3.2 0.00 0.00 0.00 88 1009.3
20260508084203 13 50 1.6 3.2 0.00 0.00 0.00 87 1009.2
20260508084103 13 50 1.6 3.2 0.00 0.00 0.00 87 1009.2
20260508084003 13 50 0.0 3.2 0.00 0.00 0.00 87 1009.3
20260508083903 13 50 0.0 3.2 0.00 0.00 0.00 88 1009.4
20260508083803 13 50 0.0 3.2 0.00 0.00 0.00 88 1009.4
20260508083702 13 50 0.0 3.2 0.00 0.00 0.00 88 1009.2
20260508083624 13 50 0.0 1.6 0.00 0.00 0.00 88 1009.1
20260508083502 13 50 0.0 1.6 0.00 0.00 0.00 88 1009.1
20260508083403 13 49 0.0 1.6 0.00 0.00 0.00 89 1009.2
20260508083303 13 50 0.0 1.6 0.00 0.00 0.00 89 1009.3
20260508083224 13 53 0.0 1.6 0.00 0.00 0.00 89 1008.9
20260508083103 13 53 0.0 1.6 0.00 0.00 0.00 89 1009.1
20260508083024 13 54 0.0 3.2 0.00 0.00 0.00 89 1009.2
20260508082903 13 54 0.0 3.2 0.00 0.00 0.00 89 1009.1
20260508082803 13 53 1.6 3.2 0.00 0.00 0.00 89 1009.1
20260508082703 13 53 1.6 3.2 0.00 0.00 0.00 89 1009.1
20260508082603 13 53 1.6 3.2 0.00 0.00 0.00 89 1009.3
20260508082503 13 54 1.6 3.2 0.00 0.00 0.00 90 1009.2
20260508082424 13 54 1.6 3.2 0.00 0.00 0.00 90 1009.2
20260508082306 13 59 1.6 4.8 0.00 0.00 0.00 90 1009.2
20260508082203 13 58 1.6 4.8 0.00 0.00 0.00 90 1009.3
20260508082103 13 58 1.6 4.8 0.00 0.00 0.00 90 1009.3
20260508082003 13 58 1.6 4.8 0.00 0.00 0.00 90 1009.4
20260508081903 13 60 1.6 4.8 0.00 0.00 0.00 89 1009.3
20260508081803 13 61 1.6 6.4 0.00 0.00 0.00 90 1009.4
20260508081703 13 60 1.6 6.4 0.00 0.00 0.00 90 1009.3
20260508081603 13 63 1.6 6.4 0.00 0.00 0.00 90 1009.3
20260508081503 13 64 1.6 6.4 0.00 0.00 0.00 90 1009.4
20260508081403 13 68 3.2 6.4 0.00 0.00 0.00 90 1009.3
20260508081303 13 68 3.2 6.4 0.00 0.00 0.00 90 1009.3
20260508081203 13 74 3.2 6.4 0.00 0.00 0.00 90 1009.5
20260508081103 13 73 3.2 6.4 0.00 0.00 0.00 90 1009.4
20260508081003 12 73 3.2 6.4 0.00 0.00 0.00 90 1009.5
20260508080902 12 73 3.2 6.4 0.00 0.00 0.00 90 1009.5
20260508080803 13 73 3.2 6.4 0.00 0.00 0.00 90 1009.6
20260508080703 12 72 3.2 4.8 0.00 0.00 0.00 90 1009.5
20260508080603 12 71 3.2 4.8 0.00 0.00 0.00 90 1009.6
20260508080503 12 71 3.2 4.8 0.00 0.00 0.00 90 1009.6
20260508080403 12 70 3.2 4.8 0.00 0.00 0.00 90 1009.4
20260508080303 12 67 3.2 4.8 0.00 0.00 0.00 90 1009.2
20260508080203 12 67 3.2 4.8 0.00 0.00 0.00 90 1009.5
20260508080124 12 59 3.2 4.8 0.00 0.00 0.00 90 1009.4
20260508080024 12 59 3.2 4.8 0.00 0.00 0.00 90 1009.4
20260508075903 12 58 3.2 4.8 0.00 0.00 0.00 90 1009.3
20260508075803 12 57 1.6 4.8 0.00 0.00 0.00 90 1009.4
20260508075724 12 57 1.6 4.8 0.00 0.00 0.00 90 1009.4
20260508075603 12 57 1.6 4.8 0.00 0.00 0.00 90 1009.2
20260508075503 12 68 1.6 6.4 0.00 0.00 0.00 90 1009.2
20260508075424 12 74 1.6 6.4 0.00 0.00 0.00 90 1009.1
20260508075308 12 73 1.6 6.4 0.00 0.00 0.00 90 1009.1
20260508075203 12 73 1.6 6.4 0.00 0.00 0.00 90 1009.1
20260508075103 12 74 1.6 6.4 0.00 0.00 0.00 90 1009.2
20260508075003 12 73 1.6 6.4 0.00 0.00 0.00 90 1009.0
20260508074903 12 75 1.6 6.4 0.00 0.00 0.00 90 1009.2
20260508074803 12 76 1.6 6.4 0.00 0.00 0.00 90 1009.1
20260508074703 12 83 1.6 6.4 0.00 0.00 0.00 90 1009.1
20260508074603 12 78 3.2 6.4 0.00 0.00 0.00 91 1009.3
20260508074503 12 74 3.2 6.4 0.00 0.00 0.00 91 1009.1
20260508074403 12 67 1.6 6.4 0.00 0.00 0.00 91 1009.2
20260508074303 12 75 3.2 9.7 0.00 0.00 0.00 91 1009.1
20260508074203 12 78 3.2 9.7 0.00 0.00 0.00 91 1009.4
20260508074103 12 78 3.2 9.7 0.00 0.00 0.00 91 1009.0
20260508074003 12 77 3.2 9.7 0.00 0.00 0.00 91 1009.2
20260508073903 12 77 3.2 9.7 0.00 0.00 0.00 91 1009.2
20260508073824 12 77 3.2 9.7 0.00 0.00 0.00 91 1009.2
20260508073724 12 82 3.2 9.7 0.00 0.00 0.00 91 1009.3
20260508073603 12 77 3.2 9.7 0.00 0.00 0.00 91 1009.2
20260508073503 12 81 3.2 9.7 0.00 0.00 0.00 91 1009.4
20260508073424 12 89 3.2 11.3 0.00 0.00 0.00 91 1009.4
20260508073303 12 87 3.2 11.3 0.00 0.00 0.00 91 1009.3
20260508073203 12 81 3.2 11.3 0.00 0.00 0.00 91 1009.4
20260508073103 12 79 3.2 11.3 0.00 0.00 0.00 91 1009.3
20260508073003 12 78 3.2 11.3 0.00 0.00 0.00 91 1009.4
20260508072903 12 82 3.2 11.3 0.00 0.00 0.00 91 1009.3
20260508072803 12 77 3.2 11.3 0.00 0.00 0.00 91 1009.4
20260508072703 12 74 3.2 11.3 0.00 0.00 0.00 92 1009.3
20260508072603 12 86 3.2 11.3 0.00 0.00 0.00 92 1009.3
20260508072524 12 86 3.2 11.3 0.00 0.00 0.00 92 1009.3
20260508072403 12 86 4.8 11.3 0.00 0.00 0.00 92 1009.3
20260508072307 12 76 3.2 9.7 0.00 0.00 0.00 92 1009.4
20260508072224 12 78 3.2 9.7 0.00 0.00 0.00 92 1009.4
20260508072103 12 77 3.2 9.7 0.00 0.00 0.00 92 1009.2
20260508072003 12 78 3.2 9.7 0.00 0.00 0.00 92 1009.5
20260508071903 12 84 3.2 9.7 0.00 0.00 0.00 92 1009.2
20260508071824 12 81 3.2 9.7 0.00 0.00 0.00 92 1009.3
20260508071724 12 79 3.2 9.7 0.00 0.00 0.00 92 1009.4
20260508071603 12 83 3.2 9.7 0.00 0.00 0.00 92 1009.4
20260508071503 12 72 3.2 9.7 0.00 0.00 0.00 92 1009.5
20260508071403 12 73 3.2 9.7 0.00 0.00 0.00 92 1009.1
20260508071324 12 73 3.2 9.7 0.00 0.00 0.00 92 1009.1
20260508071203 12 74 4.8 11.3 0.00 0.00 0.00 92 1009.3
20260508071103 12 76 4.8 11.3 0.00 0.00 0.00 92 1009.1
20260508071003 12 84 4.8 11.3 0.00 0.00 0.00 92 1009.3
20260508070903 12 87 4.8 11.3 0.00 0.00 0.00 92 1009.3
20260508070803 12 88 6.4 11.3 0.00 0.00 0.00 93 1009.3
20260508070703 12 90 6.4 11.3 0.00 0.00 0.00 93 1009.3
20260508070603 12 96 6.4 11.3 0.00 0.00 0.00 93 1009.2
20260508070503 12 92 4.8 11.3 0.00 0.00 0.00 93 1009.3
20260508070403 12 93 4.8 11.3 0.00 0.00 0.00 93 1009.3
20260508070303 12 94 4.8 11.3 0.00 0.00 0.00 93 1009.2
20260508070203 12 93 4.8 11.3 0.00 0.00 0.00 93 1009.4
20260508070003 12 90 4.8 11.3 0.00 0.00 0.00 93 1009.1
20260508065924 12 86 4.8 11.3 0.00 0.00 0.00 93 1009.1
20260508065803 12 79 3.2 6.4 0.00 0.00 0.00 93 1009.0
20260508065724 11 72 3.2 4.8 0.00 0.00 0.00 93 1008.9
20260508065624 11 72 3.2 6.4 0.00 0.00 0.00 93 1009.1
20260508065524 11 65 3.2 6.4 0.00 0.00 0.00 93 1009.1
20260508065403 11 65 3.2 6.4 0.00 0.00 0.00 93 1009.1
20260508065306 11 69 3.2 9.7 0.00 0.00 0.00 93 1009.0
20260508065203 11 68 3.2 9.7 0.00 0.00 0.00 93 1009.1
20260508065103 11 69 3.2 9.7 0.00 0.00 0.00 93 1009.1
20260508065003 11 71 3.2 9.7 0.00 0.00 0.00 93 1009.0
20260508064903 11 71 3.2 9.7 0.00 0.00 0.00 93 1009.0
20260508064803 11 66 3.2 9.7 0.00 0.00 0.00 93 1009.0
20260508064703 11 68 3.2 9.7 0.00 0.00 0.00 93 1009.2
20260508064603 11 67 3.2 9.7 0.00 0.00 0.00 93 1009.2
20260508064524 11 67 3.2 9.7 0.00 0.00 0.00 93 1009.0
20260508064403 11 68 3.2 9.7 0.00 0.00 0.00 93 1009.0
20260508064303 11 68 3.2 9.7 0.00 0.00 0.00 93 1008.9
20260508064203 11 63 3.2 4.8 0.00 0.00 0.00 93 1009.0
20260508064103 11 65 3.2 4.8 0.00 0.00 0.00 93 1009.0
20260508064003 11 68 3.2 4.8 0.00 0.00 0.00 93 1009.0
20260508063903 11 71 3.2 9.7 0.00 0.00 0.00 93 1008.9
20260508063803 11 69 3.2 9.7 0.00 0.00 0.00 93 1009.0
20260508063703 11 69 3.2 9.7 0.00 0.00 0.00 93 1009.0
20260508063603 11 76 3.2 9.7 0.00 0.00 0.00 93 1009.0
20260508063503 11 83 3.2 9.7 0.00 0.00 0.00 93 1008.9
20260508063403 11 80 4.8 9.7 0.00 0.00 0.00 93 1008.9
20260508063303 11 81 4.8 9.7 0.00 0.00 0.00 93 1009.0
20260508063203 11 83 4.8 9.7 0.00 0.00 0.00 93 1008.9
20260508063103 11 83 4.8 9.7 0.00 0.00 0.00 93 1008.7
20260508063003 11 84 4.8 9.7 0.00 0.00 0.00 93 1008.7
20260508062903 11 87 4.8 9.7 0.00 0.00 0.00 93 1008.6
20260508062803 11 85 4.8 9.7 0.00 0.00 0.00 93 1008.7
20260508062703 11 90 3.2 9.7 0.00 0.00 0.00 93 1008.8
20260508062624 11 90 3.2 9.7 0.00 0.00 0.00 93 1008.8
20260508062503 11 82 3.2 9.7 0.00 0.00 0.00 93 1008.7
20260508062403 11 82 3.2 9.7 0.00 0.00 0.00 93 1008.7
20260508062306 11 85 3.2 6.4 0.00 0.00 0.00 93 1008.6
20260508062203 11 87 3.2 6.4 0.00 0.00 0.00 93 1008.7
20260508062103 11 88 3.2 6.4 0.00 0.00 0.00 93 1008.5
20260508062003 11 84 3.2 6.4 0.00 0.00 0.00 93 1008.6
20260508061903 11 80 3.2 6.4 0.00 0.00 0.00 93 1008.7
20260508061803 11 75 3.2 4.8 0.00 0.00 0.00 93 1008.5
20260508061703 11 73 3.2 4.8 0.00 0.00 0.00 93 1008.6
20260508061603 11 73 3.2 4.8 0.00 0.00 0.00 93 1008.6
20260508061524 11 73 3.2 4.8 0.00 0.00 0.00 93 1008.6
20260508061424 11 68 3.2 4.8 0.00 0.00 0.00 93 1008.6
20260508061303 11 61 1.6 4.8 0.00 0.00 0.00 93 1008.6
20260508061203 11 61 1.6 4.8 0.00 0.00 0.00 93 1008.6
20260508061103 11 58 1.6 4.8 0.00 0.00 0.00 93 1008.5
20260508061003 11 57 1.6 4.8 0.00 0.00 0.00 93 1008.5
20260508060924 11 58 1.6 4.8 0.00 0.00 0.00 93 1008.5
20260508060803 11 60 1.6 4.8 0.00 0.00 0.00 93 1008.6
20260508060703 11 53 1.6 4.8 0.00 0.00 0.00 93 1008.5
20260508060603 11 56 1.6 4.8 0.00 0.00 0.00 93 1008.6
20260508060503 11 51 1.6 3.2 0.00 0.00 0.00 92 1008.3
20260508060403 11 52 1.6 3.2 0.00 0.00 0.00 92 1008.3
20260508060324 11 52 1.6 3.2 0.00 0.00 0.00 92 1008.3
20260508060203 11 72 1.6 6.4 0.00 0.00 0.00 92 1008.4
20260508060024 11 69 1.6 6.4 0.00 0.00 0.00 92 1008.4
20260508055903 11 69 1.6 6.4 0.00 0.00 0.00 92 1008.3
20260508055803 11 69 1.6 6.4 0.00 0.00 0.00 92 1008.3
20260508055703 11 71 1.6 6.4 0.00 0.00 0.00 92 1008.3
20260508055603 11 68 3.2 6.4 0.00 0.00 0.00 92 1008.4
20260508055504 11 67 3.2 6.4 0.00 0.00 0.00 92 1008.5
20260508055403 11 74 3.2 6.4 0.00 0.00 0.00 92 1008.4
20260508055324 11 72 3.2 6.4 0.00 0.00 0.00 92 1008.5
20260508055224 11 72 3.2 6.4 0.00 0.00 0.00 92 1008.5
20260508055103 11 67 3.2 6.4 0.00 0.00 0.00 92 1008.4
20260508055003 11 69 3.2 6.4 0.00 0.00 0.00 92 1008.4
20260508054903 11 69 3.2 6.4 0.00 0.00 0.00 92 1008.4
20260508054824 11 72 3.2 6.4 0.00 0.00 0.00 92 1008.6
20260508054703 11 79 4.8 9.7 0.00 0.00 0.00 92 1008.4
20260508054603 11 84 4.8 9.7 0.00 0.00 0.00 92 1008.3
20260508054503 11 84 4.8 9.7 0.00 0.00 0.00 92 1008.2
20260508054424 11 88 4.8 9.7 0.00 0.00 0.00 93 1008.3
20260508054303 11 83 4.8 9.7 0.00 0.00 0.00 93 1008.4
20260508054203 11 83 3.2 9.7 0.00 0.00 0.00 93 1008.5
20260508054103 11 88 4.8 9.7 0.00 0.00 0.00 93 1008.3
20260508054024 11 88 4.8 9.7 0.00 0.00 0.00 93 1008.3
20260508053903 11 87 3.2 9.7 0.00 0.00 0.00 93 1008.3
20260508053824 11 87 3.2 9.7 0.00 0.00 0.00 93 1008.3
20260508053704 11 85 3.2 9.7 0.00 0.00 0.00 93 1008.3
20260508053603 11 81 3.2 6.4 0.00 0.00 0.00 93 1008.3
20260508053503 11 73 3.2 6.4 0.00 0.00 0.00 93 1008.4
20260508053403 11 75 3.2 6.4 0.00 0.00 0.00 93 1008.4
20260508053303 11 70 3.2 6.4 0.00 0.00 0.00 93 1008.3
20260508053203 11 72 3.2 6.4 0.00 0.00 0.00 93 1008.3
20260508053103 11 84 3.2 9.7 0.00 0.00 0.00 93 1008.2
20260508053024 11 79 3.2 9.7 0.00 0.00 0.00 93 1008.4
20260508052903 11 76 3.2 9.7 0.00 0.00 0.00 93 1008.3
20260508052803 11 76 3.2 9.7 0.00 0.00 0.00 93 1008.3
20260508052703 11 75 3.2 9.7 0.00 0.00 0.00 93 1008.3
20260508052624 11 75 3.2 9.7 0.00 0.00 0.00 93 1008.3
20260508052503 11 76 3.2 9.7 0.00 0.00 0.00 93 1008.3
20260508052403 11 87 3.2 9.7 0.00 0.00 0.00 93 1008.4
20260508052306 11 89 3.2 9.7 0.00 0.00 0.00 93 1008.5
20260508052203 11 94 4.8 9.7 0.00 0.00 0.00 93 1008.4
20260508052103 11 94 4.8 9.7 0.00 0.00 0.00 93 1008.4
20260508052024 11 81 3.2 6.4 0.00 0.00 0.00 93 1008.3
20260508051903 11 84 4.8 9.7 0.00 0.00 0.00 93 1008.3
20260508051803 11 82 4.8 9.7 0.00 0.00 0.00 93 1008.3
20260508051703 11 82 4.8 9.7 0.00 0.00 0.00 93 1008.4
20260508051624 11 82 4.8 9.7 0.00 0.00 0.00 93 1008.4
20260508051503 11 85 4.8 9.7 0.00 0.00 0.00 94 1008.5
20260508051403 11 81 4.8 9.7 0.00 0.00 0.00 93 1008.3
20260508051303 11 81 4.8 9.7 0.00 0.00 0.00 93 1008.3
20260508051203 11 85 4.8 9.7 0.00 0.00 0.00 94 1008.3
20260508051103 11 85 4.8 9.7 0.00 0.00 0.00 94 1008.4
20260508051003 11 87 4.8 9.7 0.00 0.00 0.00 94 1008.6
20260508050903 11 91 4.8 9.7 0.00 0.00 0.00 94 1008.5
20260508050803 11 90 4.8 6.4 0.00 0.00 0.00 94 1008.4
20260508050703 11 92 4.8 6.4 0.00 0.00 0.00 94 1008.7
20260508050624 11 90 4.8 9.7 0.00 0.00 0.00 94 1008.6
20260508050524 11 88 4.8 9.7 0.00 0.00 0.00 94 1008.4
20260508050403 11 88 4.8 9.7 0.00 0.00 0.00 94 1008.4
20260508050324 11 88 4.8 9.7 0.00 0.00 0.00 94 1008.4
20260508050203 11 83 3.2 9.7 0.00 0.00 0.00 94 1008.6
20260508050103 11 83 3.2 9.7 0.00 0.00 0.00 94 1008.6
20260508050024 11 81 3.2 9.7 0.00 0.00 0.00 94 1008.5
20260508045903 11 76 3.2 9.7 0.00 0.00 0.00 94 1008.5
20260508045803 11 75 3.2 9.7 0.00 0.00 0.00 94 1008.5
20260508045703 11 76 3.2 9.7 0.00 0.00 0.00 94 1008.6
20260508045603 11 79 1.6 9.7 0.00 0.00 0.00 94 1008.6
20260508045503 11 84 1.6 6.4 0.00 0.00 0.00 94 1008.6
20260508045403 11 77 1.6 4.8 0.00 0.00 0.00 94 1008.6
20260508045324 11 75 1.6 4.8 0.00 0.00 0.00 94 1008.5
20260508045203 11 64 1.6 3.2 0.00 0.00 0.00 94 1008.6
20260508045103 11 64 1.6 3.2 0.00 0.00 0.00 94 1008.5
20260508045003 11 64 1.6 3.2 0.00 0.00 0.00 94 1008.4
20260508044903 11 61 1.6 3.2 0.00 0.00 0.00 94 1008.6
20260508044803 11 63 1.6 3.2 0.00 0.00 0.00 94 1008.6
20260508044703 11 62 1.6 3.2 0.00 0.00 0.00 94 1008.5
20260508044603 11 61 1.6 3.2 0.00 0.00 0.00 94 1008.5
20260508044503 11 60 1.6 3.2 0.00 0.00 0.00 94 1008.5
20260508044403 11 60 1.6 3.2 0.00 0.00 0.00 94 1008.5
20260508044303 11 60 1.6 3.2 0.00 0.00 0.00 94 1008.6
20260508044203 11 58 1.6 3.2 0.00 0.00 0.00 94 1008.4
20260508044124 11 60 1.6 3.2 0.00 0.00 0.00 94 1008.4
20260508044004 11 53 1.6 3.2 0.00 0.00 0.00 94 1008.5
20260508043903 11 62 1.6 4.8 0.00 0.00 0.00 94 1008.3
20260508043824 11 62 1.6 4.8 0.00 0.00 0.00 94 1008.3
20260508043724 11 62 1.6 4.8 0.00 0.00 0.00 94 1008.3
20260508043603 11 61 1.6 4.8 0.00 0.00 0.00 94 1008.7
20260508043503 11 61 1.6 4.8 0.00 0.00 0.00 94 1008.6
20260508043403 11 65 1.6 4.8 0.00 0.00 0.00 93 1008.4
20260508043303 11 65 1.6 4.8 0.00 0.00 0.00 93 1008.4
20260508043203 11 65 1.6 4.8 0.00 0.00 0.00 93 1008.5
20260508043103 11 64 1.6 4.8 0.00 0.00 0.00 93 1008.4
20260508043003 11 64 1.6 4.8 0.00 0.00 0.00 93 1008.4
20260508042903 11 67 1.6 4.8 0.00 0.00 0.00 93 1008.4
20260508042824 11 67 1.6 4.8 0.00 0.00 0.00 93 1008.5
20260508042703 11 74 1.6 4.8 0.00 0.00 0.00 93 1008.5
20260508042603 11 75 1.6 4.8 0.00 0.00 0.00 93 1008.4
20260508042503 11 71 1.6 4.8 0.00 0.00 0.00 93 1008.5
20260508042403 11 73 1.6 4.8 0.00 0.00 0.00 93 1008.4
20260508042306 11 71 1.6 4.8 0.00 0.00 0.00 93 1008.7
20260508042203 11 67 1.6 4.8 0.00 0.00 0.00 93 1008.5
20260508042103 11 67 1.6 4.8 0.00 0.00 0.00 93 1008.5
20260508042024 11 70 1.6 4.8 0.00 0.00 0.00 93 1008.4
20260508041903 11 66 1.6 4.8 0.00 0.00 0.00 93 1008.6
20260508041803 11 64 1.6 4.8 0.00 0.00 0.00 93 1008.4
20260508041703 11 59 1.6 4.8 0.00 0.00 0.00 93 1008.3
20260508041624 11 52 1.6 3.2 0.00 0.00 0.00 93 1008.3
20260508041503 11 52 1.6 3.2 0.00 0.00 0.00 93 1008.4
20260508041403 11 54 1.6 3.2 0.00 0.00 0.00 93 1008.5
20260508041303 11 57 1.6 3.2 0.00 0.00 0.00 92 1008.5
20260508041203 11 63 1.6 3.2 0.00 0.00 0.00 92 1008.5
20260508041103 11 71 1.6 4.8 0.00 0.00 0.00 92 1008.3
20260508041003 11 72 1.6 4.8 0.00 0.00 0.00 92 1008.3
20260508040903 11 72 1.6 4.8 0.00 0.00 0.00 92 1008.3
20260508040803 11 76 1.6 4.8 0.00 0.00 0.00 92 1008.4
20260508040703 11 74 1.6 4.8 0.00 0.00 0.00 92 1008.5
20260508040603 11 75 1.6 4.8 0.00 0.00 0.00 92 1008.2
20260508040503 11 75 1.6 4.8 0.00 0.00 0.00 93 1008.3
20260508040403 11 75 1.6 4.8 0.00 0.00 0.00 93 1008.3
20260508040325 11 72 1.6 4.8 0.00 0.00 0.00 93 1008.4
20260508040203 11 70 1.6 4.8 0.00 0.00 0.00 93 1008.5
20260508040003 11 61 1.6 3.2 0.00 0.00 0.00 93 1008.5
20260508035924 11 61 1.6 3.2 0.00 0.00 0.00 93 1008.5
20260508035803 11 66 1.6 6.4 0.00 0.00 0.00 93 1008.5
20260508035703 11 67 1.6 6.4 0.00 0.00 0.00 93 1008.4
20260508035603 11 67 1.6 6.4 0.00 0.00 0.00 93 1008.6
20260508035503 11 65 1.6 6.4 0.00 0.00 0.00 93 1008.5
20260508035403 11 69 1.6 6.4 0.00 0.00 0.00 93 1008.7
20260508035306 11 67 1.6 6.4 0.00 0.00 0.00 93 1008.6
20260508035203 11 67 1.6 6.4 0.00 0.00 0.00 93 1008.6
20260508035124 11 67 1.6 6.4 0.00 0.00 0.00 93 1008.7
20260508035003 11 68 1.6 6.4 0.00 0.00 0.00 93 1008.7
20260508034903 11 68 1.6 6.4 0.00 0.00 0.00 93 1008.7
20260508034824 11 67 1.6 6.4 0.00 0.00 0.00 93 1008.6
20260508034703 11 63 1.6 4.8 0.00 0.00 0.00 93 1008.5
20260508034603 11 61 1.6 4.8 0.00 0.00 0.00 94 1008.6
20260508034503 11 63 1.6 4.8 0.00 0.00 0.00 94 1008.6
20260508034403 11 67 1.6 4.8 0.00 0.00 0.00 94 1008.6
20260508034303 11 62 1.6 4.8 0.00 0.00 0.00 94 1008.5
20260508034203 11 65 1.6 4.8 0.00 0.00 0.00 94 1008.6
20260508034103 11 65 1.6 4.8 0.00 0.00 0.00 94 1008.6
20260508034004 11 67 1.6 4.8 0.00 0.00 0.00 94 1008.5
20260508033924 11 66 1.6 4.8 0.00 0.00 0.00 94 1008.5
20260508033824 11 65 1.6 4.8 0.00 0.00 0.00 94 1008.7
20260508033703 11 74 1.6 4.8 0.00 0.00 0.00 94 1008.5
20260508033603 11 74 1.6 4.8 0.00 0.00 0.00 94 1008.8
20260508033503 11 78 1.6 4.8 0.00 0.00 0.00 94 1008.8
20260508033424 11 79 1.6 4.8 0.00 0.00 0.00 94 1008.7
20260508033303 11 76 0.0 4.8 0.00 0.00 0.00 94 1008.5
20260508033203 11 71 0.0 4.8 0.00 0.00 0.00 94 1008.6
20260508033103 11 69 1.6 4.8 0.00 0.00 0.00 94 1008.7
20260508033025 11 68 1.6 4.8 0.00 0.00 0.00 94 1008.8
20260508032903 11 64 1.6 4.8 0.00 0.00 0.00 94 1008.6
20260508032804 11 63 1.6 4.8 0.00 0.00 0.00 94 1008.7
20260508032703 11 56 1.6 3.2 0.00 0.00 0.00 94 1008.7
20260508032624 11 56 1.6 3.2 0.00 0.00 0.00 94 1008.7
20260508032524 11 60 1.6 4.8 0.00 0.00 0.00 94 1008.7
20260508032403 11 57 1.6 4.8 0.00 0.00 0.00 94 1008.9
20260508032306 11 58 1.6 4.8 0.00 0.00 0.00 94 1008.8
20260508032203 11 59 1.6 4.8 0.00 0.00 0.00 94 1009.0
20260508032103 11 59 1.6 4.8 0.00 0.00 0.00 94 1009.0
20260508032003 11 60 1.6 4.8 0.00 0.00 0.00 94 1008.7
20260508031924 11 60 1.6 4.8 0.00 0.00 0.00 94 1008.9
20260508031804 11 62 1.6 4.8 0.00 0.00 0.00 94 1008.8
20260508031703 11 61 1.6 4.8 0.00 0.00 0.00 94 1008.8
20260508031603 11 57 1.6 4.8 0.00 0.00 0.00 94 1008.8
20260508031503 11 53 1.6 3.2 0.00 0.00 0.00 94 1008.8
20260508031403 11 50 1.6 3.2 0.00 0.00 0.00 94 1008.8
20260508031324 11 54 0.0 3.2 0.00 0.00 0.00 94 1008.7
20260508031203 11 47 0.0 3.2 0.00 0.00 0.00 94 1008.8
20260508031104 11 47 1.6 4.8 0.00 0.00 0.00 94 1008.7
20260508031003 11 46 1.6 4.8 0.00 0.00 0.00 94 1008.6
20260508030903 11 52 1.6 4.8 0.00 0.00 0.00 94 1008.8
20260508030803 11 53 1.6 4.8 0.00 0.00 0.00 94 1008.6
20260508030703 11 53 1.6 4.8 0.00 0.00 0.00 94 1008.6
20260508030624 11 53 1.6 4.8 0.00 0.00 0.00 94 1008.6
20260508030524 11 57 1.6 4.8 0.00 0.00 0.00 94 1008.7
20260508030403 11 64 1.6 4.8 0.00 0.00 0.00 94 1008.7
20260508030303 11 65 3.2 4.8 0.00 0.00 0.00 94 1008.7
20260508030203 11 64 3.2 4.8 0.00 0.00 0.00 94 1008.7
20260508030103 11 66 1.6 4.8 0.00 0.00 0.00 94 1008.7
20260508030003 11 68 1.6 4.8 0.00 0.00 0.00 94 1008.7
20260508025903 11 69 1.6 4.8 0.00 0.00 0.00 94 1008.7
20260508025803 11 67 1.6 4.8 0.00 0.00 0.00 94 1008.5
20260508025703 11 67 1.6 4.8 0.00 0.00 0.00 94 1008.6
20260508025603 11 64 1.6 4.8 0.00 0.00 0.00 94 1008.6
20260508025524 11 70 1.6 4.8 0.00 0.00 0.00 94 1008.7
20260508025403 11 63 1.6 4.8 0.00 0.00 0.00 94 1008.5
20260508025324 11 57 1.6 4.8 0.00 0.00 0.00 94 1008.6
20260508025203 11 58 1.6 4.8 0.00 0.00 0.00 94 1008.6
20260508025103 11 68 1.6 4.8 0.00 0.00 0.00 94 1008.6
20260508025003 11 68 1.6 4.8 0.00 0.00 0.00 94 1008.7
20260508024903 11 68 1.6 4.8 0.00 0.00 0.00 94 1008.7
20260508024803 11 68 1.6 4.8 0.00 0.00 0.00 94 1008.7
20260508024703 11 68 1.6 4.8 0.00 0.00 0.00 94 1008.5
20260508024603 11 70 1.6 4.8 0.00 0.00 0.00 94 1008.7
20260508024503 11 72 1.6 4.8 0.00 0.00 0.00 94 1008.6
20260508024403 11 65 1.6 4.8 0.00 0.00 0.00 94 1008.8
20260508024303 11 64 1.6 4.8 0.00 0.00 0.00 94 1008.6
20260508024203 11 66 1.6 4.8 0.00 0.00 0.00 94 1008.8
20260508024103 11 66 1.6 4.8 0.00 0.00 0.00 94 1008.8
20260508024003 11 57 1.6 4.8 0.00 0.00 0.00 94 1008.7
20260508023924 11 57 1.6 4.8 0.00 0.00 0.00 94 1008.7
20260508023824 11 58 1.6 4.8 0.00 0.00 0.00 94 1008.6
20260508023703 11 56 1.6 3.2 0.00 0.00 0.00 94 1008.6
20260508023603 11 56 1.6 3.2 0.00 0.00 0.00 94 1008.6
20260508023503 11 56 1.6 3.2 0.00 0.00 0.00 94 1008.6
20260508023404 11 55 1.6 3.2 0.00 0.00 0.00 94 1008.5
20260508023303 11 55 1.6 3.2 0.00 0.00 0.00 94 1008.6
20260508023203 11 55 1.6 3.2 0.00 0.00 0.00 94 1008.6
20260508023103 11 56 1.6 3.2 0.00 0.00 0.00 94 1008.7
20260508023003 11 57 1.6 3.2 0.00 0.00 0.00 94 1008.7
20260508022903 11 57 1.6 3.2 0.00 0.00 0.00 94 1008.6
20260508022803 11 56 1.6 3.2 0.00 0.00 0.00 94 1008.5
20260508022703 11 56 1.6 3.2 0.00 0.00 0.00 94 1008.7
20260508022624 11 56 1.6 3.2 0.00 0.00 0.00 94 1008.7
20260508022524 11 52 1.6 4.8 0.00 0.00 0.00 94 1008.7
20260508022424 11 51 1.6 4.8 0.00 0.00 0.00 94 1008.6
20260508022306 11 51 1.6 4.8 0.00 0.00 0.00 94 1008.6
20260508022204 11 51 1.6 4.8 0.00 0.00 0.00 94 1008.7
20260508022103 11 51 1.6 4.8 0.00 0.00 0.00 94 1008.7
20260508022003 11 51 1.6 4.8 0.00 0.00 0.00 94 1008.7
20260508021903 11 53 1.6 4.8 0.00 0.00 0.00 94 1008.8
20260508021803 11 53 1.6 4.8 0.00 0.00 0.00 94 1008.8
20260508021704 11 54 1.6 4.8 0.00 0.00 0.00 94 1008.8
20260508021603 11 54 1.6 4.8 0.00 0.00 0.00 94 1008.8
20260508021503 11 55 1.6 4.8 0.00 0.00 0.00 94 1008.8
20260508021403 11 56 1.6 4.8 0.00 0.00 0.00 94 1008.7
20260508021303 11 58 1.6 4.8 0.00 0.00 0.00 94 1008.7
20260508021203 11 61 3.2 4.8 0.00 0.00 0.00 94 1008.7
20260508021103 11 61 3.2 4.8 0.00 0.00 0.00 94 1008.7
20260508021003 11 61 1.6 4.8 0.00 0.00 0.00 94 1008.7
20260508020903 11 60 1.6 4.8 0.00 0.00 0.00 94 1008.7
20260508020803 11 61 1.6 4.8 0.00 0.00 0.00 94 1008.8
20260508020703 11 60 1.6 4.8 0.00 0.00 0.00 94 1008.9
20260508020603 11 61 3.2 4.8 0.00 0.00 0.00 94 1008.8
20260508020503 11 61 3.2 4.8 0.00 0.00 0.00 94 1008.8
20260508020403 11 61 1.6 4.8 0.00 0.00 0.00 95 1008.7
20260508020324 11 60 1.6 4.8 0.00 0.00 0.00 95 1008.8
20260508020203 11 59 1.6 4.8 0.00 0.00 0.00 95 1008.8
20260508020124 11 53 1.6 3.2 0.00 0.00 0.00 95 1008.9
20260508020003 11 54 1.6 3.2 0.00 0.00 0.00 95 1008.7
20260508015903 11 54 1.6 3.2 0.00 0.00 0.00 95 1008.8
20260508015803 11 57 1.6 3.2 0.00 0.00 0.00 95 1008.8
20260508015703 11 56 1.6 3.2 0.00 0.00 0.00 95 1008.8
20260508015603 11 55 1.6 3.2 0.00 0.00 0.00 95 1008.8
20260508015503 11 55 1.6 3.2 0.00 0.00 0.00 95 1008.8
20260508015403 11 56 1.6 3.2 0.00 0.00 0.00 95 1008.8
20260508015305 11 57 1.6 3.2 0.00 0.00 0.00 95 1008.8
20260508015203 11 61 1.6 4.8 0.00 0.00 0.00 95 1008.6
20260508015104 11 63 1.6 4.8 0.00 0.00 0.00 95 1008.8
20260508015003 11 66 1.6 4.8 0.00 0.00 0.00 95 1008.9
20260508014903 11 65 3.2 4.8 0.00 0.00 0.00 95 1008.8
20260508014824 11 65 3.2 4.8 0.00 0.00 0.00 95 1008.8
20260508014703 11 64 3.2 4.8 0.00 0.00 0.00 96 1008.7
20260508014624 11 63 3.2 4.8 0.00 0.00 0.00 96 1008.9
20260508014524 11 64 3.2 4.8 0.00 0.00 0.00 96 1009.0
20260508014403 11 64 3.2 4.8 0.00 0.00 0.00 96 1009.0
20260508014303 11 63 3.2 4.8 0.00 0.00 0.00 96 1009.0
20260508014203 11 62 3.2 4.8 0.00 0.00 0.00 96 1009.0
20260508014103 11 60 3.2 4.8 0.00 0.00 0.00 96 1009.0
20260508014003 11 60 3.2 4.8 0.00 0.00 0.00 96 1009.0
20260508013903 11 57 3.2 4.8 0.00 0.00 0.00 96 1009.1
20260508013803 11 57 3.2 4.8 0.00 0.00 0.00 96 1009.0
20260508013724 11 57 3.2 4.8 0.00 0.00 0.00 96 1009.0
20260508013603 11 55 3.2 4.8 0.00 0.00 0.00 96 1009.1
20260508013503 11 56 1.6 4.8 0.00 0.00 0.00 96 1009.2
20260508013403 11 56 1.6 4.8 0.00 0.00 0.00 96 1009.1
20260508013303 11 56 1.6 4.8 0.00 0.00 0.00 97 1009.1
20260508013203 11 56 1.6 4.8 0.00 0.00 0.00 97 1009.0
20260508013103 11 59 1.6 4.8 0.00 0.00 0.00 97 1009.0
20260508013003 11 57 1.6 4.8 0.00 0.00 0.00 97 1009.2
20260508012903 11 56 1.6 4.8 0.00 0.00 0.00 97 1009.2
20260508012803 10 58 1.6 4.8 0.00 0.00 0.00 97 1009.1
20260508012703 10 64 1.6 4.8 0.00 0.00 0.00 97 1009.0
20260508012603 10 63 1.6 4.8 0.00 0.00 0.00 97 1009.1
20260508012503 10 63 1.6 4.8 0.00 0.00 0.00 97 1009.1
20260508012403 10 64 1.6 4.8 0.00 0.00 0.00 97 1009.2
20260508012307 10 65 1.6 4.8 0.00 0.00 0.00 97 1009.4
20260508012204 10 73 1.6 6.4 0.00 0.00 0.00 97 1009.2
20260508012103 10 75 1.6 6.4 0.00 0.00 0.00 97 1009.2
20260508012003 10 74 1.6 6.4 0.00 0.00 0.00 97 1009.2
20260508011924 10 75 1.6 6.4 0.00 0.00 0.00 97 1009.1
20260508011803 10 76 3.2 6.4 0.00 0.00 0.00 98 1009.3
20260508011703 10 75 3.2 6.4 0.00 0.00 0.00 98 1009.3
20260508011603 11 71 1.6 6.4 0.00 0.00 0.00 98 1009.1
20260508011503 11 74 3.2 6.4 0.00 0.00 0.00 98 1009.2
20260508011425 11 74 3.2 6.4 0.00 0.00 0.00 98 1009.2
20260508011324 10 75 3.2 6.4 0.00 0.00 0.00 98 1009.3
20260508011203 10 67 3.2 4.8 0.00 0.00 0.00 98 1009.2
20260508011124 10 67 3.2 4.8 0.00 0.00 0.00 98 1009.2
20260508011003 10 65 3.2 4.8 0.00 0.00 0.00 98 1009.2
20260508010903 10 65 3.2 4.8 0.00 0.00 0.00 98 1009.2
20260508010803 10 65 3.2 4.8 0.00 0.00 0.00 98 1009.3
20260508010725 10 65 3.2 4.8 0.00 0.00 0.00 98 1009.1
20260508010603 10 63 1.6 4.8 0.00 0.00 0.00 98 1009.4
20260508010503 10 63 1.6 4.8 0.00 0.00 0.00 98 1009.4
20260508010404 10 62 1.6 4.8 0.00 0.00 0.00 98 1009.3
20260508010303 10 59 1.6 4.8 0.00 0.00 0.00 98 1009.3
20260508010224 10 58 1.6 3.2 0.00 0.00 0.00 98 1009.3
20260508010124 10 58 1.6 3.2 0.00 0.00 0.00 98 1009.2
20260508010003 10 58 1.6 3.2 0.00 0.00 0.00 98 1009.3
20260508005903 10 57 1.6 3.2 0.00 0.00 0.00 98 1009.2
20260508005803 10 58 1.6 3.2 0.00 0.00 0.00 98 1009.4
20260508005703 10 55 1.6 3.2 0.00 0.00 0.00 98 1009.4
20260508005603 10 54 1.6 3.2 0.00 0.00 0.00 98 1009.3
20260508005524 10 54 1.6 3.2 0.00 0.00 0.00 98 1009.3
20260508005402 10 49 1.6 3.2 0.00 0.00 0.00 98 1009.6
20260508005305 10 53 1.6 4.8 0.00 0.00 0.00 98 1009.5
20260508005203 10 53 1.6 4.8 0.00 0.00 0.00 98 1009.5
20260508005103 10 54 1.6 4.8 0.00 0.00 0.00 98 1009.5
20260508005024 10 54 1.6 4.8 0.00 0.00 0.00 98 1009.5
20260508004903 10 62 1.6 4.8 0.00 0.00 0.00 98 1009.6
20260508004803 10 63 1.6 4.8 0.00 0.00 0.00 98 1009.7
20260508004703 10 66 1.6 4.8 0.00 0.00 0.00 98 1009.4
20260508004603 10 69 3.2 4.8 0.00 0.00 0.00 98 1009.4
20260508004503 10 69 3.2 4.8 0.00 0.00 0.00 98 1009.5
20260508004403 10 69 3.2 4.8 0.00 0.00 0.00 98 1009.5
20260508004303 10 70 3.2 4.8 0.00 0.00 0.00 98 1009.4
20260508004203 10 72 3.2 4.8 0.00 0.00 0.00 98 1009.5
20260508004103 10 69 3.2 4.8 0.00 0.00 0.00 98 1009.6
20260508004002 10 68 3.2 4.8 0.00 0.00 0.00 98 1009.5
20260508003903 10 64 3.2 4.8 0.00 0.00 0.00 98 1009.3
20260508003803 10 63 3.2 4.8 0.00 0.00 0.00 98 1009.4
20260508003703 10 63 3.2 4.8 0.00 0.00 0.00 98 1009.4
20260508003603 10 56 1.6 4.8 0.00 0.00 0.00 98 1009.6
20260508003503 10 56 1.6 4.8 0.00 0.00 0.00 98 1009.6
20260508003403 10 58 1.6 4.8 0.00 0.00 0.00 98 1009.6
20260508003303 10 57 1.6 4.8 0.00 0.00 0.00 98 1009.8
20260508003203 10 53 1.6 3.2 0.00 0.00 0.00 98 1009.6
20260508003103 10 46 0.0 3.2 0.00 0.00 0.00 98 1009.6
20260508003003 10 51 0.0 3.2 0.00 0.00 0.00 98 1009.6
20260508002903 10 51 0.0 3.2 0.00 0.00 0.00 98 1009.6
20260508002803 10 54 0.0 3.2 0.00 0.00 0.00 98 1009.6
20260508002724 10 55 0.0 3.2 0.00 0.00 0.00 98 1009.5
20260508002603 10 53 0.0 3.2 0.00 0.00 0.00 98 1009.7
20260508002503 10 54 0.0 3.2 0.00 0.00 0.00 98 1009.6
20260508002403 10 54 0.0 3.2 0.00 0.00 0.00 98 1009.6
20260508002324 10 54 0.0 3.2 0.00 0.00 0.00 98 1009.6
20260508002203 10 54 0.0 3.2 0.00 0.00 0.00 98 1009.6
20260508002103 10 61 0.0 3.2 0.00 0.00 0.00 98 1009.6
20260508002003 10 61 0.0 3.2 0.00 0.00 0.00 98 1009.8
20260508001903 10 61 0.0 3.2 0.00 0.00 0.00 98 1009.8
20260508001824 10 59 0.0 3.2 0.00 0.00 0.00 98 1009.8
20260508001703 10 60 1.6 3.2 0.00 0.00 0.00 98 1009.8
20260508001624 10 60 1.6 3.2 0.00 0.00 0.00 98 1009.8
20260508001503 10 61 1.6 3.2 0.00 0.00 0.00 98 1009.8
20260508001403 10 59 1.6 3.2 0.00 0.00 0.00 98 1009.7
20260508001303 10 60 1.6 3.2 0.00 0.00 0.00 98 1009.8
20260508001203 10 60 1.6 3.2 0.00 0.00 0.00 98 1009.7
20260508001103 10 60 1.6 3.2 0.00 0.00 0.00 98 1009.8
20260508001003 10 56 1.6 3.2 0.00 0.00 0.00 98 1009.8
20260508000903 10 57 1.6 3.2 0.00 0.00 0.00 98 1009.7
20260508000803 10 57 1.6 3.2 0.00 0.00 0.00 98 1009.7
20260508000703 10 58 0.0 3.2 0.00 0.00 0.00 98 1009.8
20260508000603 10 54 0.0 3.2 0.00 0.00 0.00 98 1009.8
20260508000503 10 48 0.0 1.6 0.00 0.00 0.00 98 1009.7
20260508000404 10 59 0.0 3.2 0.00 0.00 0.00 98 1009.7
20260508000305 10 56 0.0 3.2 0.00 0.00 0.00 98 1009.8
20260508000204 10 54 1.6 3.2 0.00 0.00 0.00 98 1009.7
20260508000003 10 52 1.6 3.2 0.00 0.00 0.00 98 1009.6
20260507235903 10 57 1.6 3.2 0.00 0.00 0.00 98 1009.7
20260507235803 10 58 1.6 3.2 0.00 0.00 0.00 98 1009.9
20260507235703 10 58 1.6 3.2 0.00 0.00 0.00 98 1009.9
20260507235603 10 58 1.6 3.2 0.00 0.00 0.00 98 1009.8
20260507235503 10 61 1.6 3.2 0.00 0.00 0.00 98 1009.8
20260507235403 11 61 1.6 3.2 0.00 0.00 0.00 98 1009.9
20260507235306 11 60 1.6 3.2 0.00 0.00 0.00 98 1009.8
20260507235203 11 58 1.6 4.8 0.00 0.00 0.00 98 1009.8
20260507235103 11 59 1.6 4.8 0.00 0.00 0.00 98 1009.8
20260507235024 11 59 1.6 4.8 0.00 0.00 0.00 98 1010.0
20260507234903 11 60 1.6 4.8 0.00 0.00 0.00 98 1009.8
20260507234803 11 57 1.6 4.8 0.00 0.00 0.00 98 1009.9
20260507234703 11 57 1.6 4.8 0.00 0.00 0.00 98 1009.8
20260507234603 11 57 1.6 4.8 0.00 0.00 0.00 98 1010.0
20260507234503 11 51 1.6 4.8 0.00 0.00 0.00 98 1009.9
20260507234403 11 51 1.6 4.8 0.00 0.00 0.00 98 1009.9
20260507234303 11 51 1.6 4.8 0.00 0.00 0.00 98 1009.9
20260507234224 11 53 1.6 4.8 0.00 0.00 0.00 98 1010.1
20260507234103 11 55 1.6 4.8 0.00 0.00 0.00 98 1010.0
20260507234003 11 56 1.6 4.8 0.00 0.00 0.00 98 1009.8
20260507233924 11 58 1.6 4.8 0.00 0.00 0.00 98 1009.8
20260507233803 11 57 1.6 4.8 0.00 0.00 0.00 98 1009.8
20260507233703 11 57 1.6 4.8 0.00 0.00 0.00 98 1010.0
20260507233603 11 57 1.6 4.8 0.00 0.00 0.00 98 1009.8
20260507233503 11 56 1.6 4.8 0.00 0.00 0.00 98 1009.9
20260507233403 11 58 1.6 4.8 0.00 0.00 0.00 98 1010.0
20260507233303 11 66 1.6 6.4 0.00 0.00 0.00 98 1010.0
20260507233203 11 66 1.6 6.4 0.00 0.00 0.00 98 1009.9
20260507233103 11 69 1.6 6.4 0.00 0.00 0.00 98 1010.1
20260507233003 11 68 1.6 6.4 0.00 0.00 0.00 98 1010.0
20260507232903 11 75 3.2 6.4 0.00 0.00 0.00 98 1009.9
20260507232803 11 75 3.2 6.4 0.00 0.00 0.00 98 1010.0
20260507232724 11 75 3.2 6.4 0.00 0.00 0.00 98 1010.0
20260507232625 11 74 3.2 6.4 0.00 0.00 0.00 98 1009.9
20260507232503 11 72 3.2 6.4 0.00 0.00 0.00 98 1009.9
20260507232403 11 72 3.2 6.4 0.00 0.00 0.00 98 1010.0
20260507232306 11 75 3.2 6.4 0.00 0.00 0.00 98 1009.9
20260507232203 11 71 3.2 6.4 0.00 0.00 0.00 98 1010.1
20260507232103 11 71 3.2 6.4 0.00 0.00 0.00 98 1010.0
20260507232003 11 71 3.2 6.4 0.00 0.00 0.00 98 1010.0
20260507231903 11 72 3.2 6.4 0.00 0.00 0.00 98 1010.0
20260507231803 11 70 3.2 4.8 0.00 0.00 0.00 98 1010.1
20260507231703 11 69 3.2 4.8 0.00 0.00 0.00 98 1010.1
20260507231603 11 70 3.2 4.8 0.00 0.00 0.00 98 1010.1
20260507231503 11 71 3.2 4.8 0.00 0.00 0.00 98 1010.0
20260507231403 11 70 3.2 4.8 0.00 0.00 0.00 98 1010.4
20260507231303 11 70 3.2 4.8 0.00 0.00 0.00 98 1010.4
20260507231203 11 66 3.2 4.8 0.00 0.00 0.00 98 1010.0
20260507231124 11 65 3.2 4.8 0.00 0.00 0.00 98 1010.1
20260507231003 11 61 1.6 4.8 0.00 0.00 0.00 98 1010.1
20260507230903 11 59 1.6 4.8 0.00 0.00 0.00 98 1010.4
20260507230824 11 57 1.6 4.8 0.00 0.00 0.00 98 1010.1
20260507230724 11 46 1.6 3.2 0.00 0.00 0.00 98 1010.1
20260507230603 11 45 1.6 3.2 0.00 0.00 0.00 97 1010.1
20260507230503 11 45 1.6 3.2 0.00 0.00 0.00 98 1010.2
20260507230403 11 45 1.6 3.2 0.00 0.00 0.00 98 1010.0
20260507230324 11 45 1.6 3.2 0.00 0.00 0.00 98 1010.0
20260507230203 11 43 0.0 1.6 0.00 0.00 0.00 98 1010.2
20260507230003 10 42 0.0 1.6 0.00 0.00 0.00 98 1010.0
20260507225903 10 42 0.0 1.6 0.00 0.00 0.00 97 1010.2
20260507225803 10 42 0.0 1.6 0.00 0.00 0.00 97 1010.2
20260507225703 10 0 0.0 0.0 0.00 0.00 0.00 97 1010.2
20260507225603 10 0 0.0 0.0 0.00 0.00 0.00 97 1010.2
20260507225524 10 0 0.0 0.0 0.00 0.00 0.00 97 1010.2
20260507225403 10 0 0.0 0.0 0.00 0.00 0.00 97 1010.4
20260507225306 11 0 0.0 0.0 0.00 0.00 0.00 97 1010.0
20260507225203 11 0 0.0 0.0 0.00 0.00 0.00 97 1010.1
20260507225103 11 0 0.0 0.0 0.00 0.00 0.00 97 1010.2
20260507225003 11 0 0.0 0.0 0.00 0.00 0.00 97 1010.1
20260507224903 11 0 0.0 0.0 0.00 0.00 0.00 97 1010.1
20260507224803 11 0 0.0 0.0 0.00 0.00 0.00 97 1010.2
20260507224703 11 0 0.0 0.0 0.00 0.00 0.00 97 1010.4
20260507224624 11 0 0.0 0.0 0.00 0.00 0.00 97 1010.4
20260507224503 11 0 0.0 0.0 0.00 0.00 0.00 97 1010.5
20260507224403 10 0 0.0 0.0 0.00 0.00 0.00 97 1010.4
20260507224303 10 0 0.0 0.0 0.00 0.00 0.00 97 1010.2
20260507224203 10 0 0.0 0.0 0.00 0.00 0.00 97 1010.4
20260507224124 10 0 0.0 0.0 0.00 0.00 0.00 97 1010.4
20260507224003 10 0 0.0 0.0 0.00 0.00 0.00 97 1010.4
20260507223903 10 0 0.0 0.0 0.00 0.00 0.00 97 1010.4
20260507223803 11 0 0.0 0.0 0.00 0.00 0.00 97 1010.4
20260507223703 11 0 0.0 0.0 0.00 0.00 0.00 97 1010.5
20260507223603 11 0 0.0 0.0 0.00 0.00 0.00 97 1010.5
20260507223524 11 0 0.0 0.0 0.00 0.00 0.00 97 1010.6
20260507223403 11 0 0.0 0.0 0.00 0.00 0.00 97 1010.4
20260507223303 11 0 0.0 0.0 0.00 0.00 0.00 97 1010.4
20260507223203 11 0 0.0 0.0 0.00 0.00 0.00 97 1010.5
20260507223103 11 0 0.0 0.0 0.00 0.00 0.00 97 1010.4
20260507223003 11 0 0.0 0.0 0.00 0.00 0.00 97 1010.4
20260507222903 11 0 0.0 0.0 0.00 0.00 0.00 97 1010.5
20260507222803 11 0 0.0 0.0 0.00 0.00 0.00 97 1010.5
20260507222703 11 0 0.0 0.0 0.00 0.00 0.00 97 1010.6
20260507222603 11 0 0.0 0.0 0.00 0.00 0.00 97 1010.8
20260507222503 11 0 0.0 0.0 0.00 0.00 0.00 97 1010.7
20260507222403 11 0 0.0 0.0 0.00 0.00 0.00 97 1010.6
20260507222324 11 0 0.0 0.0 0.00 0.00 0.00 97 1010.7
20260507222203 11 0 0.0 0.0 0.00 0.00 0.00 97 1010.7
20260507222103 11 0 0.0 0.0 0.00 0.00 0.00 97 1010.5
20260507222003 11 37 0.0 1.6 0.00 0.00 0.00 97 1010.9
20260507221903 11 37 0.0 1.6 0.00 0.00 0.00 97 1010.9
20260507221803 11 37 0.0 1.6 0.00 0.00 0.00 97 1010.7
20260507221703 11 35 0.0 1.6 0.00 0.00 0.00 97 1010.8
20260507221624 11 35 0.0 1.6 0.00 0.00 0.00 96 1010.7
20260507221503 11 35 0.0 1.6 0.00 0.00 0.00 96 1010.8
20260507221403 11 35 0.0 1.6 0.00 0.00 0.00 96 1010.8
20260507221303 11 35 0.0 1.6 0.00 0.00 0.00 96 1010.7
20260507221203 11 35 0.0 1.6 0.00 0.00 0.00 96 1011.0
20260507221103 11 35 0.0 1.6 0.00 0.00 0.00 96 1010.7
20260507221003 11 35 0.0 1.6 0.00 0.00 0.00 96 1010.6
20260507220903 11 34 0.0 1.6 0.00 0.00 0.00 96 1010.7
20260507220803 11 31 0.0 1.6 0.00 0.00 0.00 96 1010.7
20260507220703 11 0 0.0 0.0 0.00 0.00 0.00 96 1010.8
20260507220624 11 0 0.0 0.0 0.00 0.00 0.00 96 1010.8
20260507220503 11 0 0.0 0.0 0.00 0.00 0.00 96 1010.7
20260507220403 11 0 0.0 0.0 0.00 0.00 0.00 96 1010.8
20260507220324 11 0 0.0 0.0 0.00 0.00 0.00 96 1010.7
20260507220203 11 0 0.0 0.0 0.00 0.00 0.00 96 1010.6
20260507220004 11 0 0.0 0.0 0.00 0.00 0.00 96 1010.7
20260507215903 11 0 0.0 0.0 0.00 0.00 0.00 96 1010.7
20260507215803 11 0 0.0 0.0 0.00 0.00 0.00 96 1010.6
20260507215703 11 0 0.0 0.0 0.00 0.00 0.00 96 1010.7
20260507215603 11 0 0.0 0.0 0.00 0.00 0.00 96 1010.7
20260507215503 11 0 0.0 0.0 0.00 0.00 0.00 96 1010.7
20260507215403 11 0 0.0 0.0 0.00 0.00 0.00 96 1010.7
20260507215306 11 0 0.0 0.0 0.00 0.00 0.00 96 1010.7
20260507215224 11 0 0.0 0.0 0.00 0.00 0.00 96 1010.8
20260507215103 11 0 0.0 0.0 0.00 0.00 0.00 96 1010.7
20260507215024 11 0 0.0 0.0 0.00 0.00 0.00 96 1010.7
20260507214903 11 0 0.0 0.0 0.00 0.00 0.00 96 1010.9
20260507214803 11 0 0.0 0.0 0.00 0.00 0.00 96 1010.5
20260507214703 11 0 0.0 0.0 0.00 0.00 0.00 96 1010.7
20260507214603 11 0 0.0 0.0 0.00 0.00 0.00 96 1010.7
20260507214503 12 24 0.0 1.6 0.00 0.00 0.00 96 1010.6
20260507214403 12 24 0.0 1.6 0.00 0.00 0.00 96 1010.6
20260507214303 12 24 0.0 1.6 0.00 0.00 0.00 96 1010.6
20260507214203 12 24 0.0 1.6 0.00 0.00 0.00 96 1010.8
20260507214103 12 24 0.0 1.6 0.00 0.00 0.00 96 1010.8
20260507214003 12 24 0.0 1.6 0.00 0.00 0.00 96 1010.8
20260507213903 12 24 0.0 1.6 0.00 0.00 0.00 96 1010.9
20260507213803 12 24 0.0 1.6 0.00 0.00 0.00 96 1010.8
20260507213703 12 24 0.0 1.6 0.00 0.00 0.00 96 1010.8
20260507213603 12 24 0.0 1.6 0.00 0.00 0.00 96 1010.8
20260507213503 12 24 0.0 1.6 0.00 0.00 0.00 96 1010.6
20260507213403 12 0 0.0 0.0 0.00 0.00 0.00 96 1010.8
20260507213303 12 0 0.0 0.0 0.00 0.00 0.00 96 1010.7
20260507213203 12 0 0.0 0.0 0.00 0.00 0.00 95 1010.7
20260507213124 12 0 0.0 0.0 0.00 0.00 0.00 95 1010.7
20260507213024 12 0 0.0 0.0 0.00 0.00 0.00 95 1010.6
20260507212905 12 0 0.0 0.0 0.00 0.00 0.00 95 1010.7
20260507212803 12 0 0.0 0.0 0.00 0.00 0.00 95 1010.7
20260507212703 12 0 0.0 0.0 0.00 0.00 0.00 95 1010.8
20260507212603 12 0 0.0 0.0 0.00 0.00 0.00 95 1011.0
20260507212503 12 0 0.0 0.0 0.00 0.00 0.00 95 1010.7
20260507212403 12 0 0.0 0.0 0.00 0.00 0.00 95 1010.7
20260507212324 12 0 0.0 0.0 0.00 0.00 0.00 95 1010.7
20260507212224 12 0 0.0 0.0 0.00 0.00 0.00 95 1010.7
20260507212103 12 0 0.0 0.0 0.00 0.00 0.00 95 1010.6
20260507212003 12 0 0.0 0.0 0.00 0.00 0.00 95 1010.7
20260507211903 12 0 0.0 0.0 0.00 0.00 0.00 95 1010.7
20260507211803 12 0 0.0 0.0 0.00 0.00 0.00 95 1010.6
20260507211703 12 0 0.0 0.0 0.00 0.00 0.00 95 1010.6
20260507211603 12 0 0.0 0.0 0.00 0.00 0.00 95 1010.8
20260507211503 12 0 0.0 0.0 0.00 0.00 0.00 95 1010.8
20260507211403 12 0 0.0 0.0 0.00 0.00 0.00 95 1010.7
20260507211303 12 0 0.0 0.0 0.00 0.00 0.00 95 1010.7
20260507211203 12 0 0.0 0.0 0.00 0.00 0.00 95 1010.6
20260507211103 12 0 0.0 0.0 0.00 0.00 0.00 95 1010.7
20260507211003 12 0 0.0 0.0 0.00 0.00 0.00 95 1010.8
20260507210903 12 0 0.0 0.0 0.00 0.00 0.00 95 1010.6
20260507210824 12 0 0.0 0.0 0.00 0.00 0.00 95 1010.6
20260507210724 12 0 0.0 0.0 0.00 0.00 0.00 94 1010.5
20260507210603 12 0 0.0 0.0 0.00 0.00 0.00 94 1010.4
20260507210503 12 0 0.0 0.0 0.00 0.00 0.00 94 1010.6
20260507210403 12 0 0.0 0.0 0.00 0.00 0.00 94 1010.4
20260507210303 12 0 0.0 0.0 0.00 0.00 0.00 94 1010.6
20260507210203 12 0 0.0 0.0 0.00 0.00 0.00 94 1010.7
20260507210003 12 0 0.0 0.0 0.00 0.00 0.00 94 1010.5
20260507205903 12 0 0.0 0.0 0.00 0.00 0.00 94 1010.4
20260507205803 12 0 0.0 0.0 0.00 0.00 0.00 94 1010.5
20260507205703 12 24 0.0 1.6 0.00 0.00 0.00 94 1010.4
20260507205603 12 24 0.0 1.6 0.00 0.00 0.00 94 1010.4
20260507205503 12 24 0.0 1.6 0.00 0.00 0.00 94 1010.4
20260507205403 12 24 0.0 1.6 0.00 0.00 0.00 94 1010.4
20260507205306 12 24 0.0 1.6 0.00 0.00 0.00 94 1010.2
20260507205203 12 24 0.0 1.6 0.00 0.00 0.00 94 1010.2
20260507205103 12 24 0.0 1.6 0.00 0.00 0.00 94 1010.5
20260507205003 12 24 0.0 1.6 0.00 0.00 0.00 94 1010.4
20260507204903 12 24 0.0 1.6 0.00 0.00 0.00 94 1010.2
20260507204803 12 24 0.0 1.6 0.00 0.00 0.00 94 1010.2
20260507204703 12 24 0.0 1.6 0.00 0.00 0.00 94 1010.5
20260507204603 12 24 0.0 1.6 0.00 0.00 0.00 94 1010.1
20260507204524 12 0 0.0 0.0 0.00 0.00 0.00 94 1010.4
20260507204403 12 0 0.0 0.0 0.00 0.00 0.00 94 1010.5
20260507204303 12 0 0.0 0.0 0.00 0.00 0.00 94 1010.2
20260507204203 12 0 0.0 0.0 0.00 0.00 0.00 94 1010.4
20260507204103 12 0 0.0 0.0 0.00 0.00 0.00 93 1010.4
20260507204024 12 0 0.0 0.0 0.00 0.00 0.00 93 1010.4
20260507203903 12 0 0.0 0.0 0.00 0.00 0.00 93 1010.2
20260507203803 12 0 0.0 0.0 0.00 0.00 0.00 93 1010.2
20260507203703 12 0 0.0 0.0 0.00 0.00 0.00 93 1010.2
20260507203624 12 0 0.0 0.0 0.00 0.00 0.00 93 1010.2
20260507203503 12 0 0.0 0.0 0.00 0.00 0.00 93 1010.4
20260507203403 12 0 0.0 0.0 0.00 0.00 0.00 93 1010.4
20260507203324 12 0 0.0 0.0 0.00 0.00 0.00 93 1010.2
20260507203203 12 0 0.0 0.0 0.00 0.00 0.00 93 1010.2
20260507203103 12 0 0.0 0.0 0.00 0.00 0.00 93 1010.4
20260507203024 12 0 0.0 0.0 0.00 0.00 0.00 93 1010.2
20260507202924 12 0 0.0 0.0 0.00 0.00 0.00 93 1010.0
20260507202803 12 0 0.0 0.0 0.00 0.00 0.00 93 1010.1
20260507202703 12 0 0.0 0.0 0.00 0.00 0.00 93 1010.1
20260507202624 12 24 0.0 1.6 0.00 0.00 0.00 93 1010.2
20260507202503 12 24 0.0 1.6 0.00 0.00 0.00 93 1010.2
20260507202424 12 24 0.0 1.6 0.00 0.00 0.00 93 1010.2
20260507202306 12 24 0.0 1.6 0.00 0.00 0.00 92 1010.0
20260507202224 12 24 0.0 1.6 0.00 0.00 0.00 92 1010.0
20260507202124 12 24 0.0 1.6 0.00 0.00 0.00 92 1010.0
20260507202003 12 24 0.0 1.6 0.00 0.00 0.00 92 1010.0
20260507201903 12 24 0.0 1.6 0.00 0.00 0.00 92 1010.1
20260507201803 12 24 0.0 1.6 0.00 0.00 0.00 92 1010.1
20260507201724 12 24 0.0 1.6 0.00 0.00 0.00 92 1010.1
20260507201624 12 24 0.0 1.6 0.00 0.00 0.00 92 1010.2
20260507201503 12 0 0.0 0.0 0.00 0.00 0.00 92 1010.0
20260507201403 12 0 0.0 0.0 0.00 0.00 0.00 92 1009.9
20260507201324 12 0 0.0 0.0 0.00 0.00 0.00 92 1010.1
20260507201224 12 0 0.0 0.0 0.00 0.00 0.00 92 1010.0
20260507201103 12 0 0.0 0.0 0.00 0.00 0.00 92 1010.0
20260507201003 12 0 0.0 0.0 0.00 0.00 0.00 91 1009.9
20260507200903 12 0 0.0 0.0 0.00 0.00 0.00 91 1010.1
20260507200803 12 0 0.0 0.0 0.00 0.00 0.00 91 1010.2
20260507200703 12 0 0.0 0.0 0.00 0.00 0.00 91 1010.1
20260507200603 12 0 0.0 0.0 0.00 0.00 0.00 91 1010.0
20260507200503 12 0 0.0 0.0 0.00 0.00 0.00 91 1010.1
20260507200403 12 0 0.0 0.0 0.00 0.00 0.00 91 1010.0
20260507200303 12 0 0.0 0.0 0.00 0.00 0.00 91 1010.0
20260507200203 12 0 0.0 0.0 0.00 0.00 0.00 90 1010.0
20260507200003 12 0 0.0 0.0 0.00 0.00 0.00 90 1010.1
20260507195903 12 0 0.0 0.0 0.00 0.00 0.00 90 1010.1
20260507195803 13 0 0.0 0.0 0.00 0.00 0.00 90 1009.9
20260507195703 13 0 0.0 0.0 0.00 0.00 0.00 90 1010.0
20260507195603 13 0 0.0 0.0 0.00 0.00 0.00 90 1009.7
20260507195503 13 0 0.0 0.0 0.00 0.00 0.00 90 1010.0
20260507195403 13 0 0.0 0.0 0.00 0.00 0.00 90 1009.7
20260507195305 13 0 0.0 0.0 0.00 0.00 0.00 90 1009.8
20260507195203 13 0 0.0 0.0 0.00 0.00 0.00 90 1009.8
20260507195124 13 0 0.0 0.0 0.00 0.00 0.00 90 1009.9
20260507195003 13 0 0.0 0.0 0.00 0.00 0.00 90 1009.7
20260507194903 13 0 0.0 0.0 0.00 0.00 0.00 90 1009.8
20260507194824 13 0 0.0 0.0 0.00 0.00 0.00 89 1009.8
20260507194724 13 0 0.0 0.0 0.00 0.00 0.00 89 1009.8
20260507192703 14 23 0.0 1.6 0.00 0.00 0.00 88 1010.1
20260507192603 14 23 0.0 1.6 0.00 0.00 0.00 88 1010.1
20260507192503 14 23 0.0 1.6 0.00 0.00 0.00 88 1010.1
20260507192403 14 23 0.0 1.6 0.00 0.00 0.00 88 1009.8
20260507192306 14 19 0.0 3.2 0.00 0.00 0.00 88 1009.9
20260507192203 14 19 0.0 3.2 0.00 0.00 0.00 88 1009.9
20260507192103 14 19 0.0 3.2 0.00 0.00 0.00 88 1009.9
20260507192003 14 20 0.0 3.2 0.00 0.00 0.00 87 1009.9
20260507191924 14 20 0.0 3.2 0.00 0.00 0.00 87 1009.9
20260507191824 14 20 0.0 3.2 0.00 0.00 0.00 87 1009.9
20260507191703 14 23 0.0 3.2 0.00 0.00 0.00 87 1009.8
20260507191624 14 25 0.0 3.2 0.00 0.00 0.00 87 1009.7
20260507191503 14 28 0.0 3.2 0.00 0.00 0.00 87 1009.8
20260507191424 14 29 0.0 3.2 0.00 0.00 0.00 87 1009.9
20260507191303 14 30 0.0 3.2 0.00 0.00 0.00 87 1009.9
20260507191203 14 37 0.0 1.6 0.00 0.00 0.00 87 1009.8
20260507191103 14 37 0.0 1.6 0.00 0.00 0.00 87 1009.8
20260507191003 14 37 0.0 1.6 0.00 0.00 0.00 87 1009.7
20260507190903 14 39 0.0 1.6 0.00 0.00 0.00 87 1009.8
20260507190803 14 39 1.6 1.6 0.00 0.00 0.00 87 1010.0
20260507190703 14 39 1.6 1.6 0.00 0.00 0.00 87 1010.0
20260507190603 14 37 1.6 1.6 0.00 0.00 0.00 87 1009.8
20260507190503 14 37 1.6 1.6 0.00 0.00 0.00 87 1009.8
20260507190403 14 42 1.6 3.2 0.00 0.00 0.00 86 1009.9
20260507190324 15 43 1.6 3.2 0.00 0.00 0.00 86 1009.8
20260507190203 15 45 1.6 3.2 0.00 0.00 0.00 86 1009.9
20260507190004 15 48 1.6 3.2 0.00 0.00 0.00 86 1009.9
20260507185903 15 48 1.6 3.2 0.00 0.00 0.00 86 1009.9
20260507185824 15 50 1.6 3.2 0.00 0.00 0.00 86 1009.9
20260507185703 15 51 1.6 3.2 0.00 0.00 0.00 86 1009.9
20260507185603 15 53 1.6 3.2 0.00 0.00 0.00 86 1009.9
20260507185503 15 55 1.6 3.2 0.00 0.00 0.00 86 1009.9
20260507185403 15 56 1.6 4.8 0.00 0.00 0.00 86 1010.0
20260507185305 15 47 1.6 4.8 0.00 0.00 0.00 86 1009.8
20260507185203 15 47 1.6 4.8 0.00 0.00 0.00 86 1009.8
20260507185103 15 34 1.6 4.8 0.00 0.00 0.00 86 1009.9
20260507185003 15 25 1.6 4.8 0.00 0.00 0.00 85 1009.9
20260507184903 15 13 1.6 4.8 0.00 0.00 0.00 85 1010.0
20260507184803 15 7 1.6 4.8 0.00 0.00 0.00 85 1009.8
20260507184703 15 337 1.6 4.8 0.00 0.00 0.00 85 1009.8
20260507184624 15 328 1.6 4.8 0.00 0.00 0.00 85 1009.8
20260507184503 15 319 1.6 4.8 0.00 0.00 0.00 84 1009.9
20260507184404 15 314 1.6 4.8 0.00 0.00 0.00 84 1010.0
20260507184303 16 298 1.6 3.2 0.00 0.00 0.00 83 1009.7
20260507184224 16 298 1.6 3.2 0.00 0.00 0.00 83 1009.9
20260507184103 16 298 1.6 3.2 0.00 0.00 0.00 82 1009.7
20260507184003 16 298 1.6 3.2 0.00 0.00 0.00 82 1009.8
20260507183903 16 298 1.6 3.2 0.00 0.00 0.00 82 1009.9
20260507183824 16 298 1.6 3.2 0.00 0.00 0.00 82 1009.9
20260507183703 16 298 1.6 3.2 0.00 0.00 0.00 80 1009.8
20260507183624 16 298 1.6 3.2 0.00 0.00 0.00 80 1009.8
20260507183103 16 299 1.6 3.2 0.00 0.00 0.00 78 1009.8
20260507183024 16 299 1.6 3.2 0.00 0.00 0.00 78 1009.8
20260507182903 16 299 0.0 1.6 0.00 0.00 0.00 78 1009.8
20260507182803 16 299 0.0 1.6 0.00 0.00 0.00 78 1009.8
20260507182703 16 299 0.0 1.6 0.00 0.00 0.00 78 1009.8
20260507182603 16 299 1.6 1.6 0.00 0.00 0.00 77 1009.8
20260507182503 16 299 1.6 1.6 0.00 0.00 0.00 77 1009.8
20260507182424 16 299 1.6 3.2 0.00 0.00 0.00 77 1009.9
20260507182306 16 299 1.6 3.2 0.00 0.00 0.00 78 1009.6
20260507182203 16 299 1.6 3.2 0.00 0.00 0.00 78 1009.8
20260507182103 16 299 1.6 3.2 0.00 0.00 0.00 78 1009.8
20260507182003 16 299 1.6 3.2 0.00 0.00 0.00 78 1009.9
20260507181903 16 299 1.6 3.2 0.00 0.00 0.00 78 1009.8
20260507181803 16 299 1.6 3.2 0.00 0.00 0.00 79 1009.7
20260507181703 16 299 1.6 3.2 0.00 0.00 0.00 78 1009.7
20260507181603 16 299 1.6 3.2 0.00 0.00 0.00 78 1009.9
20260507181503 16 299 1.6 3.2 0.00 0.00 0.00 78 1009.9
20260507181403 16 299 1.6 3.2 0.00 0.00 0.00 78 1009.7
20260507181324 16 299 1.6 3.2 0.00 0.00 0.00 78 1009.7
20260507181224 16 298 1.6 3.2 0.00 0.00 0.00 77 1009.7
20260507181103 16 298 1.6 3.2 0.00 0.00 0.00 77 1009.8
20260507181004 16 298 1.6 3.2 0.00 0.00 0.00 77 1009.8
20260507180903 16 298 1.6 3.2 0.00 0.00 0.00 77 1009.8
20260507180824 16 298 1.6 3.2 0.00 0.00 0.00 76 1009.8
20260507180703 17 298 1.6 3.2 0.00 0.00 0.00 76 1009.7
20260507180603 17 298 1.6 3.2 0.00 0.00 0.00 75 1009.7
20260507180524 17 298 0.0 3.2 0.00 0.00 0.00 75 1009.7
20260507180424 17 299 0.0 3.2 0.00 0.00 0.00 74 1009.8
20260507180303 17 299 0.0 3.2 0.00 0.00 0.00 73 1009.8
20260507180203 17 299 1.6 3.2 0.00 0.00 0.00 75 1009.6
20260507180004 17 299 1.6 3.2 0.00 0.00 0.00 75 1009.8
20260507175924 17 299 1.6 3.2 0.00 0.00 0.00 75 1009.8
20260507175803 17 299 1.6 3.2 0.00 0.00 0.00 76 1009.8
20260507175703 17 299 1.6 3.2 0.00 0.00 0.00 75 1009.7
20260507175603 17 299 1.6 3.2 0.00 0.00 0.00 75 1009.8
20260507175503 17 299 1.6 3.2 0.00 0.00 0.00 75 1009.8
20260507175403 17 299 1.6 3.2 0.00 0.00 0.00 75 1009.7
20260507175306 17 299 1.6 4.8 0.00 0.00 0.00 76 1009.8
20260507175203 17 299 1.6 4.8 0.00 0.00 0.00 76 1009.8
20260507175103 17 293 1.6 4.8 0.00 0.00 0.00 76 1009.5
20260507175003 17 290 1.6 4.8 0.00 0.00 0.00 77 1009.9
20260507174903 17 288 1.6 4.8 0.00 0.00 0.00 78 1009.6
20260507174503 16 289 3.2 6.4 0.00 0.00 0.00 78 1009.8
20260507174403 16 289 3.2 6.4 0.00 0.00 0.00 78 1009.8
20260507174303 16 293 3.2 6.4 0.00 0.00 0.00 77 1009.6
20260507174203 17 295 3.2 6.4 0.00 0.00 0.00 77 1009.6
20260507174103 17 295 3.2 6.4 0.00 0.00 0.00 77 1009.6
20260507174003 17 299 3.2 6.4 0.00 0.00 0.00 77 1009.7
20260507173904 17 301 1.6 6.4 0.00 0.00 0.00 77 1009.5
20260507173824 17 301 3.2 6.4 0.00 0.00 0.00 77 1009.6
20260507173724 16 299 3.2 6.4 0.00 0.00 0.00 77 1009.6
20260507173603 16 299 3.2 6.4 0.00 0.00 0.00 78 1009.6
20260507173503 16 298 3.2 6.4 0.00 0.00 0.00 78 1009.6
20260507173403 16 298 3.2 6.4 0.00 0.00 0.00 78 1009.7
20260507173303 16 292 1.6 6.4 0.00 0.00 0.00 78 1009.6
20260507173203 16 288 1.6 6.4 0.00 0.00 0.00 78 1009.4
20260507173103 16 282 1.6 6.4 0.00 0.00 0.00 79 1009.5
20260507173003 16 279 1.6 6.4 0.00 0.00 0.00 78 1009.6
20260507172903 16 282 3.2 6.4 0.00 0.00 0.00 78 1009.6
20260507172803 16 285 3.2 6.4 0.00 0.00 0.00 78 1009.6
20260507172703 16 292 3.2 6.4 0.00 0.00 0.00 78 1009.6
20260507172624 16 292 3.2 6.4 0.00 0.00 0.00 78 1009.6
20260507172503 16 301 3.2 6.4 0.00 0.00 0.00 77 1009.4
20260507172403 16 310 3.2 6.4 0.00 0.00 0.00 77 1009.5
20260507172307 16 319 3.2 6.4 0.00 0.00 0.00 77 1009.4
20260507172204 16 328 4.8 9.7 0.00 0.00 0.00 77 1009.5
20260507172103 17 333 4.8 9.7 0.00 0.00 0.00 76 1009.5
20260507172003 17 333 4.8 9.7 0.00 0.00 0.00 76 1009.5
20260507171903 17 343 4.8 9.7 0.00 0.00 0.00 76 1009.4
20260507171803 17 349 4.8 9.7 0.00 0.00 0.00 76 1009.5
20260507171703 17 348 4.8 9.7 0.00 0.00 0.00 76 1009.4
20260507171624 17 348 4.8 9.7 0.00 0.00 0.00 76 1009.3
20260507171503 17 354 3.2 9.7 0.00 0.00 0.00 76 1009.5
20260507171403 17 355 3.2 9.7 0.00 0.00 0.00 75 1009.4
20260507171303 17 354 3.2 9.7 0.00 0.00 0.00 76 1009.4
20260507171203 17 351 3.2 9.7 0.00 0.00 0.00 75 1009.3
20260507171124 17 342 3.2 4.8 0.00 0.00 0.00 76 1009.4
20260507171003 17 340 3.2 4.8 0.00 0.00 0.00 76 1009.3
20260507170903 17 340 3.2 6.4 0.00 0.00 0.00 77 1009.2
20260507170804 17 330 3.2 6.4 0.00 0.00 0.00 76 1009.4
20260507170703 17 333 3.2 6.4 0.00 0.00 0.00 76 1009.4
20260507170603 17 328 3.2 6.4 0.00 0.00 0.00 75 1009.4
20260507170503 17 316 3.2 6.4 0.00 0.00 0.00 74 1009.3
20260507170403 17 304 3.2 6.4 0.00 0.00 0.00 74 1009.4
20260507170303 17 304 3.2 6.4 0.00 0.00 0.00 74 1009.4
20260507170203 17 304 3.2 6.4 0.00 0.00 0.00 74 1009.4
20260507170103 17 302 3.2 6.4 0.00 0.00 0.00 73 1009.3
20260507170003 17 300 3.2 6.4 0.00 0.00 0.00 73 1009.4
20260507165903 18 296 3.2 6.4 0.00 0.00 0.00 72 1009.4
20260507165824 18 285 3.2 4.8 0.00 0.00 0.00 70 1009.4
20260507165703 18 285 3.2 4.8 0.00 0.00 0.00 71 1009.4
20260507165603 18 285 3.2 4.8 0.00 0.00 0.00 71 1009.4
20260507165503 18 285 3.2 4.8 0.00 0.00 0.00 71 1009.4
20260507165403 18 285 1.6 4.8 0.00 0.00 0.00 70 1009.4
20260507165306 18 284 1.6 4.8 0.00 0.00 0.00 70 1009.4
20260507165224 18 284 1.6 4.8 0.00 0.00 0.00 70 1009.4
20260507165103 18 284 1.6 4.8 0.00 0.00 0.00 70 1009.2
20260507165003 18 284 1.6 4.8 0.00 0.00 0.00 70 1009.4
20260507164903 18 284 1.6 4.8 0.00 0.00 0.00 71 1009.4
20260507164803 18 284 1.6 4.8 0.00 0.00 0.00 71 1009.4
20260507164703 18 284 1.6 3.2 0.00 0.00 0.00 71 1009.6
20260507164603 18 284 1.6 3.2 0.00 0.00 0.00 71 1009.6
20260507164503 18 284 1.6 3.2 0.00 0.00 0.00 70 1009.6
20260507164403 18 284 1.6 3.2 0.00 0.00 0.00 71 1009.8
20260507164303 17 284 0.0 3.2 0.00 0.00 0.00 73 1009.7
20260507164203 17 284 0.0 3.2 0.00 0.00 0.00 73 1009.7
20260507164124 17 284 1.6 3.2 0.00 0.00 0.00 72 1009.8
20260507164003 17 284 1.6 3.2 0.00 0.00 0.00 72 1009.8
20260507163903 17 284 1.6 3.2 0.00 0.00 0.00 71 1010.0
20260507163824 17 284 1.6 3.2 0.00 0.00 0.00 71 1009.8
20260507163703 17 284 1.6 3.2 0.00 0.00 0.00 72 1009.9
20260507163603 17 284 1.6 3.2 0.00 0.00 0.00 72 1009.9
20260507163503 17 284 1.6 3.2 0.00 0.00 0.00 71 1009.9
20260507163403 17 284 1.6 3.2 0.00 0.00 0.00 70 1010.0
20260507163303 17 284 1.6 3.2 0.00 0.00 0.00 70 1010.0
20260507163203 17 284 1.6 3.2 0.00 0.00 0.00 71 1009.9
20260507163103 17 284 1.6 3.2 0.00 0.00 0.00 70 1009.9
20260507163003 18 284 1.6 3.2 0.00 0.00 0.00 70 1010.1
20260507162903 18 284 1.6 3.2 0.00 0.00 0.00 70 1010.0
20260507162803 18 284 1.6 3.2 0.00 0.00 0.00 70 1010.0
20260507162703 18 284 1.6 3.2 0.00 0.00 0.00 69 1010.0
20260507162603 18 284 1.6 3.2 0.00 0.00 0.00 67 1009.9
20260507162503 18 284 1.6 3.2 0.00 0.00 0.00 67 1009.9
20260507162403 18 284 0.0 3.2 0.00 0.00 0.00 66 1009.9
20260507162306 19 284 0.0 3.2 0.00 0.00 0.00 65 1010.0
20260507162224 19 284 0.0 3.2 0.00 0.00 0.00 64 1010.1
20260507162103 19 284 0.0 3.2 0.00 0.00 0.00 65 1009.9
20260507162003 18 284 0.0 4.8 0.00 0.00 0.00 68 1010.0
20260507161903 18 284 0.0 4.8 0.00 0.00 0.00 69 1010.0
20260507161803 18 284 1.6 4.8 0.00 0.00 0.00 71 1010.0
20260507161703 18 284 1.6 4.8 0.00 0.00 0.00 71 1010.0
20260507161603 18 284 1.6 4.8 0.00 0.00 0.00 72 1010.1
20260507161503 18 284 1.6 4.8 0.00 0.00 0.00 72 1009.9
20260507161404 17 284 1.6 4.8 0.00 0.00 0.00 71 1010.4
20260507161303 17 284 1.6 4.8 0.00 0.00 0.00 71 1010.4
20260507161203 17 284 1.6 4.8 0.00 0.00 0.00 70 1010.0
20260507161103 17 284 1.6 4.8 0.00 0.00 0.00 69 1010.2
20260507161003 18 284 1.6 4.8 0.00 0.00 0.00 69 1010.1
20260507160924 18 284 1.6 3.2 0.00 0.00 0.00 68 1010.1
20260507160803 18 284 1.6 3.2 0.00 0.00 0.00 70 1010.4
20260507160703 18 284 1.6 3.2 0.00 0.00 0.00 68 1010.2
20260507160603 18 284 0.0 3.2 0.00 0.00 0.00 71 1010.4
20260507160503 18 284 1.6 3.2 0.00 0.00 0.00 70 1010.1
20260507160403 18 284 1.6 3.2 0.00 0.00 0.00 69 1010.0
20260507160303 18 284 1.6 3.2 0.00 0.00 0.00 70 1010.2
20260507160203 18 284 1.6 3.2 0.00 0.00 0.00 70 1010.1
20260507160103 18 284 0.0 3.2 0.00 0.00 0.00 69 1010.1
20260507160003 17 284 1.6 3.2 0.00 0.00 0.00 70 1010.1
20260507155924 17 284 1.6 3.2 0.00 0.00 0.00 70 1010.1
20260507155803 17 284 1.6 3.2 0.00 0.00 0.00 72 1010.2
20260507155703 17 284 1.6 3.2 0.00 0.00 0.00 72 1010.2
20260507155603 17 284 1.6 3.2 0.00 0.00 0.00 70 1010.2
20260507155503 17 284 1.6 3.2 0.00 0.00 0.00 70 1010.1
20260507155424 17 284 1.6 3.2 0.00 0.00 0.00 70 1010.1
20260507155306 17 284 1.6 3.2 0.00 0.00 0.00 70 1010.0
20260507155224 17 284 1.6 3.2 0.00 0.00 0.00 73 1010.1
20260507155124 17 284 1.6 3.2 0.00 0.00 0.00 72 1009.8
20260507155003 17 284 1.6 4.8 0.00 0.00 0.00 71 1010.0
20260507154904 17 284 1.6 4.8 0.00 0.00 0.00 71 1010.1
20260507154803 17 284 3.2 4.8 0.00 0.00 0.00 73 1010.1
20260507154724 17 284 3.2 4.8 0.00 0.00 0.00 73 1010.1
20260507154603 17 284 3.2 4.8 0.00 0.00 0.00 71 1010.0
20260507154503 17 284 3.2 4.8 0.00 0.00 0.00 71 1010.4
20260507154403 17 284 3.2 4.8 0.00 0.00 0.00 71 1010.4
20260507154303 17 284 3.2 4.8 0.00 0.00 0.00 73 1010.0
20260507154203 17 284 3.2 4.8 0.00 0.00 0.00 72 1010.1
20260507154103 17 284 3.2 4.8 0.00 0.00 0.00 71 1010.1
20260507154003 17 284 3.2 4.8 0.00 0.00 0.00 71 1010.1
20260507153903 17 284 3.2 4.8 0.00 0.00 0.00 71 1010.2
20260507153804 17 287 3.2 4.8 0.00 0.00 0.00 71 1010.0
20260507153703 17 292 3.2 4.8 0.00 0.00 0.00 71 1010.4
20260507153603 17 295 3.2 4.8 0.00 0.00 0.00 71 1010.0
20260507153504 17 299 3.2 4.8 0.00 0.00 0.00 71 1010.1
20260507153403 17 302 3.2 4.8 0.00 0.00 0.00 72 1010.0
20260507153303 17 305 3.2 4.8 0.00 0.00 0.00 72 1010.1
20260507153203 17 307 3.2 4.8 0.00 0.00 0.00 72 1010.1
20260507153103 17 319 3.2 6.4 0.00 0.00 0.00 72 1009.9
20260507153003 17 320 3.2 6.4 0.00 0.00 0.00 72 1010.1
20260507152903 17 324 3.2 6.4 0.00 0.00 0.00 72 1010.0
20260507152803 17 325 3.2 6.4 0.00 0.00 0.00 72 1009.8
20260507152703 17 326 3.2 6.4 0.00 0.00 0.00 72 1010.0
20260507152603 17 330 3.2 6.4 0.00 0.00 0.00 72 1009.9
20260507152503 17 330 3.2 6.4 0.00 0.00 0.00 72 1009.9
20260507152403 17 326 3.2 6.4 0.00 0.00 0.00 72 1010.0
20260507152306 18 324 3.2 6.4 0.00 0.00 0.00 71 1009.8
20260507152203 18 322 3.2 6.4 0.00 0.00 0.00 71 1009.8
20260507152103 18 319 3.2 6.4 0.00 0.00 0.00 71 1010.0
20260507152003 18 307 3.2 6.4 0.00 0.00 0.00 71 1010.1
20260507151903 18 300 4.8 9.7 0.00 0.00 0.00 70 1009.8
20260507151803 18 304 4.8 9.7 0.00 0.00 0.00 71 1009.8
20260507151703 18 299 4.8 9.7 0.00 0.00 0.00 71 1009.9
20260507151603 18 291 4.8 9.7 0.00 0.00 0.00 72 1010.0
20260507151524 18 291 4.8 9.7 0.00 0.00 0.00 72 1010.0
20260507151403 17 290 4.8 9.7 0.00 0.00 0.00 74 1010.0
20260507151303 17 289 4.8 9.7 0.00 0.00 0.00 72 1010.0
20260507151203 17 289 4.8 9.7 0.00 0.00 0.00 72 1010.0
20260507151124 17 289 4.8 9.7 0.00 0.00 0.00 72 1010.0
20260507151003 17 299 4.8 9.7 0.00 0.00 0.00 73 1010.2
20260507150903 17 299 4.8 9.7 0.00 0.00 0.00 73 1010.2
20260507150803 17 305 4.8 6.4 0.00 0.00 0.00 74 1010.1
20260507150704 17 306 4.8 6.4 0.00 0.00 0.00 73 1010.0
20260507150603 17 304 4.8 9.7 0.00 0.00 0.00 73 1009.8
20260507150503 17 298 4.8 9.7 0.00 0.00 0.00 74 1010.1
20260507150403 17 295 4.8 9.7 0.00 0.00 0.00 74 1010.1
20260507150324 17 293 4.8 9.7 0.00 0.00 0.00 74 1009.9
20260507150203 17 294 4.8 9.7 0.00 0.00 0.00 73 1009.9
20260507150103 17 295 4.8 9.7 0.00 0.00 0.00 74 1009.9
20260507150003 17 291 4.8 9.7 0.00 0.00 0.00 73 1010.1
20260507145903 17 286 4.8 9.7 0.00 0.00 0.00 74 1009.9
20260507145803 17 285 4.8 9.7 0.00 0.00 0.00 73 1009.9
20260507145703 18 285 4.8 9.7 0.00 0.00 0.00 71 1010.0
20260507145603 18 285 4.8 9.7 0.00 0.00 0.00 71 1010.0
20260507145503 18 298 4.8 11.3 0.00 0.00 0.00 72 1010.2
20260507145403 18 314 4.8 11.3 0.00 0.00 0.00 71 1010.0
20260507145306 17 321 4.8 11.3 0.00 0.00 0.00 73 1009.9
20260507145203 17 331 4.8 11.3 0.00 0.00 0.00 75 1010.1
20260507145103 17 340 4.8 11.3 0.00 0.00 0.00 75 1010.0
20260507145024 17 346 4.8 11.3 0.00 0.00 0.00 75 1010.1
20260507144903 17 350 6.4 11.3 0.00 0.00 0.00 74 1009.9
20260507144803 17 357 4.8 11.3 0.00 0.00 0.00 75 1010.0
20260507144704 17 1 6.4 11.3 0.00 0.00 0.00 75 1010.2
20260507144603 17 360 6.4 11.3 0.00 0.00 0.00 74 1010.2
20260507144503 16 4 6.4 11.3 0.00 0.00 0.00 76 1009.8
20260507144403 16 5 6.4 11.3 0.00 0.00 0.00 76 1010.0
20260507144303 16 5 6.4 11.3 0.00 0.00 0.00 75 1010.0
20260507144203 16 5 6.4 11.3 0.00 0.00 0.00 76 1010.0
20260507144124 16 5 6.4 11.3 0.00 0.00 0.00 76 1010.0
20260507144003 16 6 4.8 11.3 0.00 0.00 0.00 76 1010.0
20260507143903 16 6 4.8 11.3 0.00 0.00 0.00 76 1010.0
20260507143803 16 6 4.8 9.7 0.00 0.00 0.00 77 1010.0
20260507143703 16 6 3.2 9.7 0.00 0.00 0.00 77 1010.2
20260507143603 16 358 3.2 6.4 0.00 0.00 0.00 77 1010.2
20260507143503 16 360 3.2 6.4 0.00 0.00 0.00 77 1010.2
20260507143403 16 349 3.2 6.4 0.00 0.00 0.00 77 1010.2
20260507143303 16 348 3.2 6.4 0.00 0.00 0.00 77 1010.6
20260507143224 16 345 3.2 6.4 0.00 0.00 0.00 78 1010.6
20260507143103 16 344 1.6 6.4 0.00 0.00 0.00 78 1010.7
20260507143003 16 345 1.6 6.4 0.00 0.00 0.00 79 1010.6
20260507142903 16 346 1.6 6.4 0.00 0.00 0.00 79 1010.8
20260507142803 16 346 1.6 6.4 0.00 0.00 0.00 79 1010.8
20260507142703 16 347 1.6 6.4 0.00 0.00 0.00 78 1010.9
20260507142603 16 354 1.6 4.8 0.00 0.00 0.00 78 1010.8
20260507142503 16 352 1.6 4.8 0.00 0.00 0.00 79 1010.8
20260507142403 16 352 1.6 3.2 0.00 0.00 0.00 79 1011.0
20260507142306 16 354 1.6 3.2 0.00 0.00 0.00 79 1011.0
20260507142203 16 354 1.6 3.2 0.00 0.00 0.00 79 1011.0
20260507142124 16 354 1.6 3.2 0.00 0.00 0.00 79 1011.0
20260507142003 16 353 1.6 3.2 0.00 0.00 0.00 79 1011.1
20260507141903 16 354 1.6 3.2 0.00 0.00 0.00 80 1011.0
20260507141803 16 354 3.2 4.8 0.00 0.00 0.00 79 1011.1
20260507141703 16 354 3.2 4.8 0.00 0.00 0.00 79 1010.9
20260507141603 16 354 3.2 4.8 0.00 0.00 0.00 79 1010.9
20260507141503 16 354 3.2 4.8 0.00 0.00 0.00 79 1011.0
20260507141403 16 3 3.2 6.4 0.00 0.00 0.00 79 1011.0
20260507141303 16 7 3.2 6.4 0.00 0.00 0.00 79 1011.2
20260507141203 16 6 3.2 9.7 0.00 0.00 0.00 79 1010.8
20260507141124 16 5 3.2 9.7 0.00 0.00 0.00 79 1011.0
20260507141003 16 5 4.8 9.7 0.00 0.00 0.00 79 1011.0
20260507140903 16 6 4.8 9.7 0.00 0.00 0.00 79 1011.0
20260507140824 16 7 3.2 9.7 0.00 0.00 0.00 79 1010.9
20260507140724 16 7 3.2 9.7 0.00 0.00 0.00 79 1010.9
20260507140603 16 8 3.2 9.7 0.00 0.00 0.00 79 1011.0
20260507140503 16 5 4.8 9.7 0.00 0.00 0.00 78 1010.9
20260507140403 16 3 4.8 11.3 0.00 0.00 0.00 78 1011.0
20260507140303 16 4 4.8 11.3 0.00 0.00 0.00 78 1010.9
20260507140203 16 5 3.2 11.3 0.00 0.00 0.00 78 1010.8
20260507140103 16 4 4.8 11.3 0.00 0.00 0.00 78 1011.0
20260507140024 16 4 4.8 11.3 0.00 0.00 0.00 78 1011.0
20260507135925 16 5 3.2 11.3 0.00 0.00 0.00 78 1011.0
20260507135824 16 3 4.8 11.3 0.00 0.00 0.00 78 1010.9
20260507135703 16 2 4.8 11.3 0.00 0.00 0.00 77 1010.8
20260507135603 16 3 4.8 11.3 0.00 0.00 0.00 77 1010.9
20260507135503 16 3 4.8 11.3 0.00 0.00 0.00 77 1010.8
20260507135403 16 1 4.8 11.3 0.00 0.00 0.00 77 1010.8
20260507135306 16 358 4.8 11.3 0.00 0.00 0.00 77 1011.0
20260507135203 16 359 4.8 11.3 0.00 0.00 0.00 76 1011.0
20260507135104 16 357 4.8 11.3 0.00 0.00 0.00 77 1011.0
20260507135003 16 355 4.8 12.9 0.00 0.00 0.00 77 1010.9
20260507134903 16 357 4.8 12.9 0.00 0.00 0.00 76 1010.8
20260507134803 17 354 4.8 12.9 0.00 0.00 0.00 77 1010.7
20260507134703 17 357 4.8 12.9 0.00 0.00 0.00 76 1010.8
20260507134603 17 352 4.8 12.9 0.00 0.00 0.00 76 1010.8
20260507134503 17 352 4.8 12.9 0.00 0.00 0.00 76 1010.9
20260507134403 17 353 4.8 12.9 0.00 0.00 0.00 76 1010.9
20260507134303 17 353 4.8 12.9 0.00 0.00 0.00 76 1010.9
20260507134203 17 349 4.8 12.9 0.00 0.00 0.00 76 1010.8
20260507134103 17 347 4.8 12.9 0.00 0.00 0.00 76 1010.8
20260507134003 17 348 4.8 12.9 0.00 0.00 0.00 76 1010.8
20260507133903 17 352 4.8 11.3 0.00 0.00 0.00 76 1010.6
20260507133803 17 348 4.8 11.3 0.00 0.00 0.00 77 1010.7
20260507133703 17 351 4.8 11.3 0.00 0.00 0.00 78 1010.6
20260507133603 17 353 4.8 11.3 0.00 0.00 0.00 80 1010.7
20260507133503 17 354 6.4 14.5 0.00 0.00 0.00 77 1010.7
20260507133403 17 354 6.4 14.5 0.00 0.00 0.00 77 1010.6
20260507133303 17 352 6.4 14.5 0.00 0.00 0.00 78 1010.7
20260507133203 17 359 6.4 17.7 0.00 0.00 0.00 77 1010.4
20260507133103 17 359 6.4 17.7 0.00 0.00 0.00 79 1010.5